Time,TemperatureF,DewpointF,PressureIn,WindDirection,WindDirectionDegrees,WindSpeedMPH,WindSpeedGustMPH,Humidity,HourlyPrecipIn,Conditions,Clouds,dailyrainin,SoftwareType,DateUTC
2013-03-05 00:01:00,64.6,50.0,-100.00,NW,317,3.0,9.0,59,0.00,,,0.00,meteohub,2013-03-05 06:01:00,
2013-03-05 00:02:00,64.6,50.0,-100.00,NW,323,5.0,9.0,59,0.00,,,0.00,meteohub,2013-03-05 06:02:00,
2013-03-05 00:03:00,64.6,50.0,-100.00,NNW,329,6.0,9.0,59,0.00,,,0.00,meteohub,2013-03-05 06:03:00,
2013-03-05 00:05:00,64.2,49.6,-100.00,NNW,344,7.0,9.0,59,0.00,,,0.00,meteohub,2013-03-05 06:05:00,
2013-03-05 00:06:00,64.2,49.1,-100.00,North,0,11.0,11.0,58,0.00,,,0.00,meteohub,2013-03-05 06:06:00,
2013-03-05 00:07:00,64.2,49.1,-100.00,North,5,9.0,9.0,58,0.00,,,0.00,meteohub,2013-03-05 06:07:00,
2013-03-05 00:08:00,64.2,48.7,-100.00,North,355,5.0,8.0,57,0.00,,,0.00,meteohub,2013-03-05 06:08:00,
2013-03-05 00:10:00,64.2,47.7,-100.00,North,9,7.0,13.0,55,0.00,,,0.00,meteohub,2013-03-05 06:10:00,
2013-03-05 00:12:00,64.2,46.8,-100.00,North,5,11.0,13.0,53,0.00,,,0.00,meteohub,2013-03-05 06:12:00,
2013-03-05 00:13:00,64.0,46.6,-100.00,North,0,20.0,20.0,53,0.00,,,0.00,meteohub,2013-03-05 06:13:00,
2013-03-05 00:15:00,63.9,45.9,-100.00,North,5,18.0,18.0,52,0.00,,,0.00,meteohub,2013-03-05 06:15:00,
2013-03-05 00:17:00,63.5,44.1,-100.00,North,10,16.0,20.0,49,0.00,,,0.00,meteohub,2013-03-05 06:17:00,
2013-03-05 00:18:00,63.5,44.1,-100.00,NNE,27,7.0,20.0,49,0.00,,,0.00,meteohub,2013-03-05 06:18:00,
2013-03-05 00:19:00,63.3,43.9,-100.00,NE,40,16.0,20.0,49,0.00,,,0.00,meteohub,2013-03-05 06:19:00,
2013-03-05 00:20:00,63.1,43.7,-100.00,NNE,12,22.0,25.0,49,0.00,,,0.00,meteohub,2013-03-05 06:20:00,
2013-03-05 00:22:00,63.1,43.2,-100.00,NNE,18,21.0,25.0,48,0.00,,,0.00,meteohub,2013-03-05 06:22:00,
2013-03-05 00:24:00,63.1,43.2,-100.00,NNE,13,12.0,25.0,48,0.00,,,0.00,meteohub,2013-03-05 06:24:00,
2013-03-05 00:26:00,63.0,43.0,-100.00,NNW,348,20.0,25.0,48,0.00,,,0.00,meteohub,2013-03-05 06:26:00,
2013-03-05 00:28:00,62.8,43.3,-100.00,NNE,24,11.0,25.0,49,0.00,,,0.00,meteohub,2013-03-05 06:28:00,
2013-03-05 00:29:00,62.4,43.0,-100.00,NNE,19,18.0,25.0,49,0.00,,,0.00,meteohub,2013-03-05 06:29:00,
2013-03-05 00:31:00,62.2,42.8,-100.00,NE,37,16.0,25.0,49,0.00,,,0.00,meteohub,2013-03-05 06:31:00,
2013-03-05 00:33:00,62.1,42.6,-100.00,NNE,15,13.0,25.0,49,0.00,,,0.00,meteohub,2013-03-05 06:33:00,
2013-03-05 00:34:00,62.1,43.2,-100.00,NNE,25,13.0,25.0,50,0.00,,,0.00,meteohub,2013-03-05 06:34:00,
2013-03-05 00:35:00,61.9,43.0,-100.00,North,5,10.0,25.0,50,0.00,,,0.00,meteohub,2013-03-05 06:35:00,
2013-03-05 00:36:00,61.9,43.0,-100.00,North,5,6.0,25.0,50,0.00,,,0.00,meteohub,2013-03-05 06:36:00,
2013-03-05 00:38:00,61.5,42.6,-100.00,North,0,12.0,25.0,50,0.00,,,0.00,meteohub,2013-03-05 06:38:00,
2013-03-05 00:40:00,61.3,43.0,-100.00,North,0,11.0,25.0,51,0.00,,,0.00,meteohub,2013-03-05 06:40:00,
2013-03-05 00:41:00,61.2,43.0,-100.00,North,0,18.0,23.0,51,0.00,,,0.00,meteohub,2013-03-05 06:41:00,
2013-03-05 00:44:00,61.0,43.2,-100.00,North,11,28.0,28.0,52,0.00,,,0.00,meteohub,2013-03-05 06:44:00,
2013-03-05 00:45:00,60.4,42.8,-100.00,NNE,16,16.0,33.0,52,0.00,,,0.00,meteohub,2013-03-05 06:45:00,
2013-03-05 00:47:00,60.3,43.0,-100.00,North,11,15.0,33.0,53,0.00,,,0.00,meteohub,2013-03-05 06:47:00,
2013-03-05 00:49:00,60.1,43.0,-100.00,North,9,16.0,33.0,53,0.00,,,0.00,meteohub,2013-03-05 06:49:00,
2013-03-05 00:50:00,59.5,42.8,-100.00,North,11,18.0,33.0,54,0.00,,,0.00,meteohub,2013-03-05 06:50:00,
2013-03-05 00:51:00,59.5,43.3,-100.00,North,350,25.0,33.0,55,0.00,,,0.00,meteohub,2013-03-05 06:51:00,
2013-03-05 00:52:00,59.2,43.0,-100.00,NNW,344,17.0,33.0,55,0.00,,,0.00,meteohub,2013-03-05 06:52:00,
2013-03-05 00:54:00,58.6,43.0,-100.00,North,5,10.0,33.0,56,0.00,,,0.00,meteohub,2013-03-05 06:54:00,
2013-03-05 00:55:00,58.5,42.8,-100.00,North,0,14.0,33.0,56,0.00,,,0.00,meteohub,2013-03-05 06:55:00,
2013-03-05 00:56:00,58.1,43.0,-100.00,NNW,344,28.0,33.0,57,0.00,,,0.00,meteohub,2013-03-05 06:56:00,
2013-03-05 00:57:00,57.9,42.8,-100.00,North,0,23.0,33.0,57,0.00,,,0.00,meteohub,2013-03-05 06:57:00,
2013-03-05 00:59:00,57.4,42.3,-100.00,North,5,19.0,33.0,57,0.00,,,0.00,meteohub,2013-03-05 06:59:00,
2013-03-05 01:00:00,56.8,42.3,-100.00,NNW,331,18.0,29.0,58,0.00,,,0.00,meteohub,2013-03-05 07:00:00,
2013-03-05 01:02:00,56.7,42.4,-100.00,NNW,348,23.0,29.0,59,0.00,,,0.00,meteohub,2013-03-05 07:02:00,
2013-03-05 01:03:00,56.5,42.3,-100.00,NNW,339,17.0,29.0,59,0.00,,,0.00,meteohub,2013-03-05 07:03:00,
2013-03-05 01:04:00,56.1,41.9,-100.00,NNW,342,18.0,29.0,59,0.00,,,0.00,meteohub,2013-03-05 07:04:00,
2013-03-05 01:05:00,55.9,42.3,-100.00,North,0,16.0,29.0,60,0.00,,,0.00,meteohub,2013-03-05 07:05:00,
2013-03-05 01:08:00,55.8,42.1,-100.00,North,0,18.0,29.0,60,0.00,,,0.00,meteohub,2013-03-05 07:08:00,
2013-03-05 01:09:00,55.6,41.9,-100.00,North,355,24.0,29.0,60,0.00,,,0.00,meteohub,2013-03-05 07:09:00,
2013-03-05 01:11:00,55.6,41.9,-100.00,NNE,24,19.0,29.0,60,0.00,,,0.00,meteohub,2013-03-05 07:11:00,
2013-03-05 01:13:00,55.4,41.7,-100.00,North,5,13.0,29.0,60,0.00,,,0.00,meteohub,2013-03-05 07:13:00,
2013-03-05 01:14:00,55.4,41.7,-100.00,NNE,24,15.0,29.0,60,0.00,,,0.00,meteohub,2013-03-05 07:14:00,
2013-03-05 01:16:00,55.4,41.7,-100.00,North,355,18.0,26.0,60,0.00,,,0.00,meteohub,2013-03-05 07:16:00,
2013-03-05 01:18:00,55.2,41.5,-100.00,North,11,20.0,26.0,60,0.00,,,0.00,meteohub,2013-03-05 07:18:00,
2013-03-05 01:19:00,55.2,41.5,-100.00,North,355,14.0,26.0,60,0.00,,,0.00,meteohub,2013-03-05 07:19:00,
2013-03-05 01:21:00,55.2,41.5,-100.00,North,0,14.0,28.0,60,0.00,,,0.00,meteohub,2013-03-05 07:21:00,
2013-03-05 01:23:00,55.0,41.9,-100.00,NNW,347,16.0,28.0,61,0.00,,,0.00,meteohub,2013-03-05 07:23:00,
2013-03-05 01:24:00,55.0,41.9,-100.00,NNW,348,19.0,28.0,61,0.00,,,0.00,meteohub,2013-03-05 07:24:00,
2013-03-05 01:25:00,55.0,41.9,-100.00,North,5,19.0,28.0,61,0.00,,,0.00,meteohub,2013-03-05 07:25:00,
2013-03-05 01:27:00,55.0,41.9,-100.00,NNW,344,16.0,28.0,61,0.00,,,0.00,meteohub,2013-03-05 07:27:00,
2013-03-05 01:29:00,54.9,41.2,-100.00,North,355,24.0,28.0,60,0.00,,,0.00,meteohub,2013-03-05 07:29:00,
2013-03-05 01:30:00,54.7,41.0,-100.00,NNW,343,26.0,28.0,60,0.00,,,0.00,meteohub,2013-03-05 07:30:00,
2013-03-05 01:33:00,54.3,40.8,-100.00,NNW,346,15.0,27.0,60,0.00,,,0.00,meteohub,2013-03-05 07:33:00,
2013-03-05 01:34:00,54.1,40.6,-100.00,NNW,335,23.0,27.0,60,0.00,,,0.00,meteohub,2013-03-05 07:34:00,
2013-03-05 01:35:00,54.1,40.6,-100.00,NNW,339,20.0,27.0,60,0.00,,,0.00,meteohub,2013-03-05 07:35:00,
2013-03-05 01:38:00,53.8,40.6,-100.00,NNW,346,14.0,29.0,61,0.00,,,0.00,meteohub,2013-03-05 07:38:00,
2013-03-05 01:40:00,53.4,40.6,-100.00,North,355,15.0,29.0,62,0.00,,,0.00,meteohub,2013-03-05 07:40:00,
2013-03-05 01:41:00,53.2,40.6,-100.00,NNW,342,18.0,33.0,62,0.00,,,0.00,meteohub,2013-03-05 07:41:00,
2013-03-05 01:43:00,53.2,40.6,-100.00,NNW,346,16.0,33.0,62,0.00,,,0.00,meteohub,2013-03-05 07:43:00,
2013-03-05 01:45:00,52.9,40.6,-100.00,NNW,341,23.0,33.0,63,0.00,,,0.00,meteohub,2013-03-05 07:45:00,
2013-03-05 01:46:00,52.9,40.6,-100.00,North,351,22.0,33.0,63,0.00,,,0.00,meteohub,2013-03-05 07:46:00,
2013-03-05 01:48:00,52.5,40.3,-100.00,NNW,346,18.0,33.0,63,0.00,,,0.00,meteohub,2013-03-05 07:48:00,
2013-03-05 01:50:00,52.3,40.5,-100.00,North,355,26.0,29.0,64,0.00,,,0.00,meteohub,2013-03-05 07:50:00,
2013-03-05 01:51:00,52.2,40.3,-100.00,North,5,23.0,29.0,64,0.00,,,0.00,meteohub,2013-03-05 07:51:00,
2013-03-05 01:53:00,52.0,40.1,-100.00,North,0,22.0,29.0,64,0.00,,,0.00,meteohub,2013-03-05 07:53:00,
2013-03-05 01:55:00,51.6,39.9,-100.00,NNW,343,24.0,33.0,64,0.00,,,0.00,meteohub,2013-03-05 07:55:00,
2013-03-05 01:56:00,51.4,40.1,-100.00,NNW,337,28.0,33.0,65,0.00,,,0.00,meteohub,2013-03-05 07:56:00,
2013-03-05 01:58:00,51.3,39.9,-100.00,North,0,19.0,33.0,65,0.00,,,0.00,meteohub,2013-03-05 07:58:00,
2013-03-05 02:00:00,51.1,39.7,-100.00,NNW,343,19.0,33.0,65,0.00,,,0.00,meteohub,2013-03-05 08:00:00,
2013-03-05 02:01:00,51.1,39.7,-100.00,North,0,15.0,33.0,65,0.00,,,0.00,meteohub,2013-03-05 08:01:00,
2013-03-05 02:02:00,51.1,40.1,-100.00,NNW,339,20.0,33.0,66,0.00,,,0.00,meteohub,2013-03-05 08:02:00,
2013-03-05 02:03:00,50.7,39.7,-100.00,NNW,348,27.0,33.0,66,0.00,,,0.00,meteohub,2013-03-05 08:03:00,
2013-03-05 02:05:00,50.7,39.7,-100.00,NNW,327,26.0,33.0,66,0.00,,,0.00,meteohub,2013-03-05 08:05:00,
2013-03-05 02:06:00,50.7,39.4,-100.00,NNW,343,23.0,33.0,65,0.00,,,0.00,meteohub,2013-03-05 08:06:00,
2013-03-05 02:07:00,50.7,39.7,-100.00,NNW,347,25.0,33.0,66,0.00,,,0.00,meteohub,2013-03-05 08:07:00,
2013-03-05 02:08:00,50.5,39.2,-100.00,North,355,18.0,33.0,65,0.00,,,0.00,meteohub,2013-03-05 08:08:00,
2013-03-05 02:10:00,50.4,39.4,-100.00,North,355,19.0,33.0,66,0.00,,,0.00,meteohub,2013-03-05 08:10:00,
2013-03-05 02:12:00,50.4,39.4,-100.00,North,0,25.0,33.0,66,0.00,,,0.00,meteohub,2013-03-05 08:12:00,
2013-03-05 02:14:00,50.2,38.8,-100.00,North,355,16.0,33.0,65,0.00,,,0.00,meteohub,2013-03-05 08:14:00,
2013-03-05 02:16:00,50.2,39.2,-100.00,North,5,19.0,34.0,66,0.00,,,0.00,meteohub,2013-03-05 08:16:00,
2013-03-05 02:17:00,50.2,39.2,-100.00,NNW,335,33.0,34.0,66,0.00,,,0.00,meteohub,2013-03-05 08:17:00,
2013-03-05 02:19:00,49.8,38.5,-100.00,NNW,342,33.0,34.0,65,0.00,,,0.00,meteohub,2013-03-05 08:19:00,
2013-03-05 02:21:00,49.8,38.5,-100.00,NNW,346,17.0,34.0,65,0.00,,,0.00,meteohub,2013-03-05 08:21:00,
2013-03-05 02:22:00,49.8,38.5,-100.00,North,355,20.0,34.0,65,0.00,,,0.00,meteohub,2013-03-05 08:22:00,
2013-03-05 02:23:00,49.8,38.5,-100.00,NNW,343,29.0,34.0,65,0.00,,,0.00,meteohub,2013-03-05 08:23:00,
2013-03-05 02:24:00,49.8,38.5,-100.00,North,0,20.0,34.0,65,0.00,,,0.00,meteohub,2013-03-05 08:24:00,
2013-03-05 02:27:00,49.6,38.3,-100.00,North,355,19.0,35.0,65,0.00,,,0.00,meteohub,2013-03-05 08:27:00,
2013-03-05 02:28:00,49.6,38.7,-100.00,North,351,17.0,35.0,66,0.00,,,0.00,meteohub,2013-03-05 08:28:00,
2013-03-05 02:29:00,49.5,38.7,-100.00,NNW,344,15.0,35.0,66,0.00,,,0.00,meteohub,2013-03-05 08:29:00,
2013-03-05 02:32:00,49.5,38.1,-100.00,North,349,24.0,35.0,65,0.00,,,0.00,meteohub,2013-03-05 08:32:00,
2013-03-05 02:33:00,49.5,38.1,-100.00,NNW,333,25.0,35.0,65,0.00,,,0.00,meteohub,2013-03-05 08:33:00,
2013-03-05 02:34:00,49.5,38.1,-100.00,NNW,348,15.0,35.0,65,0.00,,,0.00,meteohub,2013-03-05 08:34:00,
2013-03-05 02:35:00,49.5,38.1,-100.00,North,351,17.0,35.0,65,0.00,,,0.00,meteohub,2013-03-05 08:35:00,
2013-03-05 02:37:00,49.3,37.6,-100.00,NNW,342,24.0,32.0,64,0.00,,,0.00,meteohub,2013-03-05 08:37:00,
2013-03-05 02:38:00,49.3,37.6,-100.00,NNE,15,26.0,32.0,64,0.00,,,0.00,meteohub,2013-03-05 08:38:00,
2013-03-05 02:39:00,49.3,37.6,-100.00,North,355,18.0,32.0,64,0.00,,,0.00,meteohub,2013-03-05 08:39:00,
2013-03-05 02:40:00,49.3,37.6,-100.00,North,5,19.0,33.0,64,0.00,,,0.00,meteohub,2013-03-05 08:40:00,
2013-03-05 02:42:00,49.3,37.6,-100.00,NNE,19,21.0,33.0,64,0.00,,,0.00,meteohub,2013-03-05 08:42:00,
2013-03-05 02:43:00,49.1,37.4,-100.00,NNW,334,26.0,33.0,64,0.00,,,0.00,meteohub,2013-03-05 08:43:00,
2013-03-05 02:44:00,49.1,37.4,-100.00,North,9,22.0,33.0,64,0.00,,,0.00,meteohub,2013-03-05 08:44:00,
2013-03-05 02:45:00,49.1,37.4,-100.00,NNW,341,14.0,33.0,64,0.00,,,0.00,meteohub,2013-03-05 08:45:00,
2013-03-05 02:47:00,49.1,37.4,-100.00,NNW,340,22.0,33.0,64,0.00,,,0.00,meteohub,2013-03-05 08:47:00,
2013-03-05 02:49:00,49.1,37.4,-100.00,NNW,331,23.0,33.0,64,0.00,,,0.00,meteohub,2013-03-05 08:49:00,
2013-03-05 02:51:00,48.9,37.2,-100.00,NNW,348,20.0,33.0,64,0.00,,,0.00,meteohub,2013-03-05 08:51:00,
2013-03-05 02:52:00,48.9,37.2,-100.00,North,5,16.0,33.0,64,0.00,,,0.00,meteohub,2013-03-05 08:52:00,
2013-03-05 02:54:00,48.9,36.9,-100.00,NNE,18,24.0,33.0,63,0.00,,,0.00,meteohub,2013-03-05 08:54:00,
2013-03-05 02:56:00,48.9,36.9,-100.00,North,350,24.0,34.0,63,0.00,,,0.00,meteohub,2013-03-05 08:56:00,
2013-03-05 02:57:00,48.9,36.9,-100.00,North,11,19.0,34.0,63,0.00,,,0.00,meteohub,2013-03-05 08:57:00,
2013-03-05 02:59:00,48.9,36.9,-100.00,NW,326,15.0,34.0,63,0.00,,,0.00,meteohub,2013-03-05 08:59:00,
2013-03-05 03:00:00,48.9,36.9,-100.00,North,355,17.0,34.0,63,0.00,,,0.00,meteohub,2013-03-05 09:00:00,
2013-03-05 03:01:00,48.9,36.9,-100.00,NE,34,29.0,34.0,63,0.00,,,0.00,meteohub,2013-03-05 09:01:00,
2013-03-05 03:03:00,48.9,36.9,-100.00,NNW,348,19.0,34.0,63,0.00,,,0.00,meteohub,2013-03-05 09:03:00,
2013-03-05 03:04:00,48.9,36.9,-100.00,North,5,15.0,34.0,63,0.00,,,0.00,meteohub,2013-03-05 09:04:00,
2013-03-05 03:05:00,48.9,36.9,-100.00,North,0,19.0,34.0,63,0.00,,,0.00,meteohub,2013-03-05 09:05:00,
2013-03-05 03:06:00,48.9,36.9,-100.00,North,0,13.0,34.0,63,0.00,,,0.00,meteohub,2013-03-05 09:06:00,
2013-03-05 03:08:00,48.9,36.9,-100.00,North,355,25.0,34.0,63,0.00,,,0.00,meteohub,2013-03-05 09:08:00,
2013-03-05 03:09:00,48.9,36.9,-100.00,North,0,22.0,34.0,63,0.00,,,0.00,meteohub,2013-03-05 09:09:00,
2013-03-05 03:11:00,48.9,36.5,-100.00,NNW,340,19.0,34.0,62,0.00,,,0.00,meteohub,2013-03-05 09:11:00,
2013-03-05 03:12:00,48.9,36.5,-100.00,North,5,22.0,34.0,62,0.00,,,0.00,meteohub,2013-03-05 09:12:00,
2013-03-05 03:14:00,48.9,36.5,-100.00,North,355,18.0,34.0,62,0.00,,,0.00,meteohub,2013-03-05 09:14:00,
2013-03-05 03:15:00,48.9,36.5,-100.00,NNW,343,20.0,34.0,62,0.00,,,0.00,meteohub,2013-03-05 09:15:00,
2013-03-05 03:16:00,48.9,36.5,-100.00,North,0,16.0,33.0,62,0.00,,,0.00,meteohub,2013-03-05 09:16:00,
2013-03-05 03:17:00,48.9,36.5,-100.00,NNE,19,22.0,33.0,62,0.00,,,0.00,meteohub,2013-03-05 09:17:00,
2013-03-05 03:19:00,48.9,36.5,-100.00,North,355,20.0,33.0,62,0.00,,,0.00,meteohub,2013-03-05 09:19:00,
2013-03-05 03:20:00,48.9,36.5,-100.00,NNW,348,22.0,33.0,62,0.00,,,0.00,meteohub,2013-03-05 09:20:00,
2013-03-05 03:21:00,48.9,36.1,-100.00,North,350,21.0,32.0,61,0.00,,,0.00,meteohub,2013-03-05 09:21:00,
2013-03-05 03:23:00,48.9,36.1,-100.00,NNW,339,19.0,32.0,61,0.00,,,0.00,meteohub,2013-03-05 09:23:00,
2013-03-05 03:24:00,48.9,36.1,-100.00,NNE,33,16.0,32.0,61,0.00,,,0.00,meteohub,2013-03-05 09:24:00,
2013-03-05 03:25:00,48.9,36.1,-100.00,NNW,343,23.0,32.0,61,0.00,,,0.00,meteohub,2013-03-05 09:25:00,
2013-03-05 03:27:00,48.9,36.1,-100.00,NNE,22,30.0,32.0,61,0.00,,,0.00,meteohub,2013-03-05 09:27:00,
2013-03-05 03:28:00,48.9,35.6,-100.00,NNW,348,18.0,32.0,60,0.00,,,0.00,meteohub,2013-03-05 09:28:00,
2013-03-05 03:29:00,48.9,35.6,-100.00,North,5,20.0,32.0,60,0.00,,,0.00,meteohub,2013-03-05 09:29:00,
2013-03-05 03:30:00,49.1,35.8,-100.00,North,355,15.0,30.0,60,0.00,,,0.00,meteohub,2013-03-05 09:30:00,
2013-03-05 03:32:00,49.1,35.8,-100.00,North,9,18.0,30.0,60,0.00,,,0.00,meteohub,2013-03-05 09:32:00,
2013-03-05 03:33:00,49.1,35.4,-100.00,North,0,17.0,30.0,59,0.00,,,0.00,meteohub,2013-03-05 09:33:00,
2013-03-05 03:34:00,49.1,35.8,-100.00,NNW,346,13.0,30.0,60,0.00,,,0.00,meteohub,2013-03-05 09:34:00,
2013-03-05 03:35:00,49.1,35.8,-100.00,North,5,16.0,30.0,60,0.00,,,0.00,meteohub,2013-03-05 09:35:00,
2013-03-05 03:37:00,49.1,35.8,-100.00,North,5,14.0,30.0,60,0.00,,,0.00,meteohub,2013-03-05 09:37:00,
2013-03-05 03:38:00,49.1,35.4,-100.00,North,5,16.0,30.0,59,0.00,,,0.00,meteohub,2013-03-05 09:38:00,
2013-03-05 03:39:00,49.1,35.4,-100.00,North,0,17.0,30.0,59,0.00,,,0.00,meteohub,2013-03-05 09:39:00,
2013-03-05 03:41:00,49.1,34.9,-100.00,NE,34,22.0,30.0,58,0.00,,,0.00,meteohub,2013-03-05 09:41:00,
2013-03-05 03:42:00,49.1,34.5,-100.00,North,0,19.0,30.0,57,0.00,,,0.00,meteohub,2013-03-05 09:42:00,
2013-03-05 03:44:00,49.1,34.5,-100.00,North,9,20.0,30.0,57,0.00,,,0.00,meteohub,2013-03-05 09:44:00,
2013-03-05 03:45:00,49.1,34.5,-100.00,NNE,16,14.0,30.0,57,0.00,,,0.00,meteohub,2013-03-05 09:45:00,
2013-03-05 03:46:00,49.1,34.9,-100.00,North,5,15.0,30.0,58,0.00,,,0.00,meteohub,2013-03-05 09:46:00,
2013-03-05 03:48:00,49.1,34.5,-100.00,North,5,26.0,30.0,57,0.00,,,0.00,meteohub,2013-03-05 09:48:00,
2013-03-05 03:49:00,49.1,34.2,-100.00,NNW,346,15.0,30.0,56,0.00,,,0.00,meteohub,2013-03-05 09:49:00,
2013-03-05 03:50:00,49.1,34.2,-100.00,NNW,343,17.0,30.0,56,0.00,,,0.00,meteohub,2013-03-05 09:50:00,
2013-03-05 03:51:00,49.1,34.2,-100.00,NNW,336,15.0,32.0,56,0.00,,,0.00,meteohub,2013-03-05 09:51:00,
2013-03-05 03:53:00,49.1,33.3,-100.00,North,5,23.0,32.0,54,0.00,,,0.00,meteohub,2013-03-05 09:53:00,
2013-03-05 03:55:00,49.1,33.3,-100.00,North,9,23.0,36.0,54,0.00,,,0.00,meteohub,2013-03-05 09:55:00,
2013-03-05 03:56:00,49.1,33.3,-100.00,North,0,14.0,36.0,54,0.00,,,0.00,meteohub,2013-03-05 09:56:00,
2013-03-05 03:58:00,49.1,33.6,-100.00,North,5,14.0,36.0,55,0.00,,,0.00,meteohub,2013-03-05 09:58:00,
2013-03-05 04:00:00,49.1,33.6,-100.00,North,0,19.0,36.0,55,0.00,,,0.00,meteohub,2013-03-05 10:00:00,
2013-03-05 04:01:00,49.1,33.6,-100.00,NNE,13,17.0,36.0,55,0.00,,,0.00,meteohub,2013-03-05 10:01:00,
2013-03-05 04:02:00,49.1,33.6,-100.00,North,0,12.0,36.0,55,0.00,,,0.00,meteohub,2013-03-05 10:02:00,
2013-03-05 04:03:00,48.9,33.4,-100.00,North,0,18.0,36.0,55,0.00,,,0.00,meteohub,2013-03-05 10:03:00,
2013-03-05 04:05:00,48.9,33.4,-100.00,North,351,13.0,36.0,55,0.00,,,0.00,meteohub,2013-03-05 10:05:00,
2013-03-05 04:06:00,48.9,33.4,-100.00,North,355,18.0,36.0,55,0.00,,,0.00,meteohub,2013-03-05 10:06:00,
2013-03-05 04:07:00,48.9,33.4,-100.00,NNW,348,10.0,36.0,55,0.00,,,0.00,meteohub,2013-03-05 10:07:00,
2013-03-05 04:08:00,48.9,33.4,-100.00,North,351,15.0,36.0,55,0.00,,,0.00,meteohub,2013-03-05 10:08:00,
2013-03-05 04:11:00,48.7,33.3,-100.00,NNE,26,13.0,30.0,55,0.00,,,0.00,meteohub,2013-03-05 10:11:00,
2013-03-05 04:12:00,48.7,33.3,-100.00,NNW,344,17.0,30.0,55,0.00,,,0.00,meteohub,2013-03-05 10:12:00,
2013-03-05 04:13:00,48.7,33.3,-100.00,North,0,22.0,30.0,55,0.00,,,0.00,meteohub,2013-03-05 10:13:00,
2013-03-05 04:16:00,48.7,32.9,-100.00,North,355,11.0,24.0,54,0.00,,,0.00,meteohub,2013-03-05 10:16:00,
2013-03-05 04:17:00,48.7,32.9,-100.00,NNE,18,19.0,24.0,54,0.00,,,0.00,meteohub,2013-03-05 10:17:00,
2013-03-05 04:19:00,48.7,33.3,-100.00,NNW,345,19.0,24.0,55,0.00,,,0.00,meteohub,2013-03-05 10:19:00,
2013-03-05 04:21:00,48.7,33.3,-100.00,NNE,19,15.0,25.0,55,0.00,,,0.00,meteohub,2013-03-05 10:21:00,
2013-03-05 04:22:00,48.7,33.3,-100.00,NNW,344,20.0,25.0,55,0.00,,,0.00,meteohub,2013-03-05 10:22:00,
2013-03-05 04:24:00,48.7,33.3,-100.00,North,355,11.0,25.0,55,0.00,,,0.00,meteohub,2013-03-05 10:24:00,
2013-03-05 04:26:00,48.6,33.1,-100.00,North,5,13.0,26.0,55,0.00,,,0.00,meteohub,2013-03-05 10:26:00,
2013-03-05 04:27:00,48.6,33.1,-100.00,NNE,17,19.0,26.0,55,0.00,,,0.00,meteohub,2013-03-05 10:27:00,
2013-03-05 04:29:00,48.6,33.1,-100.00,North,0,12.0,26.0,55,0.00,,,0.00,meteohub,2013-03-05 10:29:00,
2013-03-05 04:31:00,48.6,33.1,-100.00,North,5,15.0,26.0,55,0.00,,,0.00,meteohub,2013-03-05 10:31:00,
2013-03-05 04:32:00,48.6,33.1,-100.00,North,0,12.0,26.0,55,0.00,,,0.00,meteohub,2013-03-05 10:32:00,
2013-03-05 04:34:00,48.6,33.1,-100.00,North,351,10.0,26.0,55,0.00,,,0.00,meteohub,2013-03-05 10:34:00,
2013-03-05 04:35:00,48.6,33.1,-100.00,North,5,10.0,26.0,55,0.00,,,0.00,meteohub,2013-03-05 10:35:00,
2013-03-05 04:36:00,48.4,33.4,-100.00,North,0,12.0,26.0,56,0.00,,,0.00,meteohub,2013-03-05 10:36:00,
2013-03-05 04:37:00,48.4,33.4,-100.00,North,350,10.0,26.0,56,0.00,,,0.00,meteohub,2013-03-05 10:37:00,
2013-03-05 04:39:00,48.2,33.3,-100.00,North,355,15.0,26.0,56,0.00,,,0.00,meteohub,2013-03-05 10:39:00,
2013-03-05 04:40:00,48.2,33.3,-100.00,NNW,348,18.0,26.0,56,0.00,,,0.00,meteohub,2013-03-05 10:40:00,
2013-03-05 04:42:00,48.2,33.3,-100.00,North,0,19.0,23.0,56,0.00,,,0.00,meteohub,2013-03-05 10:42:00,
2013-03-05 04:44:00,48.2,33.3,-100.00,NNW,346,22.0,23.0,56,0.00,,,0.00,meteohub,2013-03-05 10:44:00,
2013-03-05 04:45:00,48.2,33.3,-100.00,North,355,13.0,23.0,56,0.00,,,0.00,meteohub,2013-03-05 10:45:00,
2013-03-05 04:47:00,48.2,33.3,-100.00,North,355,10.0,24.0,56,0.00,,,0.00,meteohub,2013-03-05 10:47:00,
2013-03-05 04:49:00,48.2,33.3,-100.00,North,349,16.0,24.0,56,0.00,,,0.00,meteohub,2013-03-05 10:49:00,
2013-03-05 04:50:00,48.2,33.3,-100.00,North,351,26.0,26.0,56,0.00,,,0.00,meteohub,2013-03-05 10:50:00,
2013-03-05 04:52:00,48.2,33.3,-100.00,North,355,27.0,30.0,56,0.00,,,0.00,meteohub,2013-03-05 10:52:00,
2013-03-05 04:54:00,48.4,33.4,-100.00,NNE,16,26.0,30.0,56,0.00,,,0.00,meteohub,2013-03-05 10:54:00,
2013-03-05 04:55:00,48.4,32.9,-100.00,North,9,16.0,30.0,55,0.00,,,0.00,meteohub,2013-03-05 10:55:00,
2013-03-05 04:57:00,48.4,33.4,-100.00,NNW,342,19.0,32.0,56,0.00,,,0.00,meteohub,2013-03-05 10:57:00,
2013-03-05 04:58:00,48.4,33.4,-100.00,North,11,18.0,32.0,56,0.00,,,0.00,meteohub,2013-03-05 10:58:00,
2013-03-05 05:00:00,48.2,33.3,-100.00,North,9,11.0,32.0,56,0.00,,,0.00,meteohub,2013-03-05 11:00:00,
2013-03-05 05:02:00,48.0,33.1,-100.00,North,355,11.0,32.0,56,0.00,,,0.00,meteohub,2013-03-05 11:02:00,
2013-03-05 05:04:00,48.0,33.4,-100.00,NNE,20,17.0,32.0,57,0.00,,,0.00,meteohub,2013-03-05 11:04:00,
2013-03-05 05:05:00,47.8,33.3,-100.00,North,5,17.0,32.0,57,0.00,,,0.00,meteohub,2013-03-05 11:05:00,
2013-03-05 05:07:00,47.7,33.6,-100.00,NNE,12,15.0,32.0,58,0.00,,,0.00,meteohub,2013-03-05 11:07:00,
2013-03-05 05:09:00,47.7,33.6,-100.00,NNE,21,20.0,32.0,58,0.00,,,0.00,meteohub,2013-03-05 11:09:00,
2013-03-05 05:10:00,47.7,33.6,-100.00,North,350,17.0,32.0,58,0.00,,,0.00,meteohub,2013-03-05 11:10:00,
2013-03-05 05:11:00,47.7,33.6,-100.00,NNE,15,11.0,29.0,58,0.00,,,0.00,meteohub,2013-03-05 11:11:00,
2013-03-05 05:13:00,47.7,33.6,-100.00,North,0,11.0,29.0,58,0.00,,,0.00,meteohub,2013-03-05 11:13:00,
2013-03-05 05:14:00,47.7,33.6,-100.00,North,5,8.0,29.0,58,0.00,,,0.00,meteohub,2013-03-05 11:14:00,
2013-03-05 05:15:00,47.5,33.4,-100.00,North,5,13.0,29.0,58,0.00,,,0.00,meteohub,2013-03-05 11:15:00,
2013-03-05 05:16:00,47.5,33.4,-100.00,North,355,10.0,24.0,58,0.00,,,0.00,meteohub,2013-03-05 11:16:00,
2013-03-05 05:19:00,47.1,33.4,-100.00,North,355,10.0,24.0,59,0.00,,,0.00,meteohub,2013-03-05 11:19:00,
2013-03-05 05:20:00,47.1,33.4,-100.00,North,5,13.0,24.0,59,0.00,,,0.00,meteohub,2013-03-05 11:20:00,
2013-03-05 05:21:00,47.1,33.4,-100.00,North,351,16.0,24.0,59,0.00,,,0.00,meteohub,2013-03-05 11:21:00,
2013-03-05 05:24:00,46.9,33.8,-100.00,North,355,12.0,24.0,60,0.00,,,0.00,meteohub,2013-03-05 11:24:00,
2013-03-05 05:25:00,46.8,33.6,-100.00,North,10,10.0,24.0,60,0.00,,,0.00,meteohub,2013-03-05 11:25:00,
2013-03-05 05:27:00,46.8,33.6,-100.00,NNW,346,14.0,21.0,60,0.00,,,0.00,meteohub,2013-03-05 11:27:00,
2013-03-05 05:29:00,46.8,33.6,-100.00,NNW,344,17.0,21.0,60,0.00,,,0.00,meteohub,2013-03-05 11:29:00,
2013-03-05 05:30:00,46.8,33.6,-100.00,North,355,18.0,21.0,60,0.00,,,0.00,meteohub,2013-03-05 11:30:00,
2013-03-05 05:32:00,46.8,34.0,-100.00,North,5,16.0,19.0,61,0.00,,,0.00,meteohub,2013-03-05 11:32:00,
2013-03-05 05:35:00,46.8,34.0,-100.00,North,350,16.0,19.0,61,0.00,,,0.00,meteohub,2013-03-05 11:35:00,
2013-03-05 05:37:00,46.8,34.0,-100.00,NNE,13,14.0,25.0,61,0.00,,,0.00,meteohub,2013-03-05 11:37:00,
2013-03-05 05:40:00,46.6,33.8,-100.00,North,355,12.0,25.0,61,0.00,,,0.00,meteohub,2013-03-05 11:40:00,
2013-03-05 05:42:00,46.6,33.8,-100.00,North,355,10.0,25.0,61,0.00,,,0.00,meteohub,2013-03-05 11:42:00,
2013-03-05 05:45:00,46.4,34.2,-100.00,North,11,13.0,25.0,62,0.00,,,0.00,meteohub,2013-03-05 11:45:00,
2013-03-05 05:47:00,46.4,34.2,-100.00,North,0,14.0,25.0,62,0.00,,,0.00,meteohub,2013-03-05 11:47:00,
2013-03-05 05:48:00,46.4,34.2,-100.00,North,5,9.0,25.0,62,0.00,,,0.00,meteohub,2013-03-05 11:48:00,
2013-03-05 05:50:00,46.2,34.0,-100.00,North,350,11.0,25.0,62,0.00,,,0.00,meteohub,2013-03-05 11:50:00,
2013-03-05 05:52:00,46.2,34.0,-100.00,North,9,6.0,20.0,62,0.00,,,0.00,meteohub,2013-03-05 11:52:00,
2013-03-05 05:53:00,46.0,34.2,-100.00,North,0,11.0,20.0,63,0.00,,,0.00,meteohub,2013-03-05 11:53:00,
2013-03-05 05:55:00,46.0,34.2,-100.00,North,5,15.0,20.0,63,0.00,,,0.00,meteohub,2013-03-05 11:55:00,
2013-03-05 05:57:00,46.0,34.2,-100.00,North,5,11.0,20.0,63,0.00,,,0.00,meteohub,2013-03-05 11:57:00,
2013-03-05 05:58:00,46.0,34.2,-100.00,North,0,9.0,20.0,63,0.00,,,0.00,meteohub,2013-03-05 11:58:00,
2013-03-05 06:00:00,46.0,34.2,-100.00,NNW,347,10.0,20.0,63,0.00,,,0.00,meteohub,2013-03-05 12:00:00,
2013-03-05 06:02:00,46.0,34.2,-100.00,North,0,9.0,19.0,63,0.00,,,0.00,meteohub,2013-03-05 12:02:00,
2013-03-05 06:04:00,46.0,34.2,-100.00,NNW,348,12.0,19.0,63,0.00,,,0.00,meteohub,2013-03-05 12:04:00,
2013-03-05 06:05:00,45.9,34.0,-100.00,NNW,347,8.0,19.0,63,0.00,,,0.00,meteohub,2013-03-05 12:05:00,
2013-03-05 06:07:00,45.9,34.0,-100.00,North,5,12.0,17.0,63,0.00,,,0.00,meteohub,2013-03-05 12:07:00,
2013-03-05 06:09:00,45.9,34.0,-100.00,North,5,11.0,17.0,63,0.00,,,0.00,meteohub,2013-03-05 12:09:00,
2013-03-05 06:10:00,45.9,34.0,-100.00,North,10,11.0,17.0,63,0.00,,,0.00,meteohub,2013-03-05 12:10:00,
2013-03-05 06:11:00,45.9,34.0,-100.00,North,0,10.0,17.0,63,0.00,,,0.00,meteohub,2013-03-05 12:11:00,
2013-03-05 06:12:00,45.7,33.8,-100.00,North,5,18.0,18.0,63,0.00,,,0.00,meteohub,2013-03-05 12:12:00,
2013-03-05 06:15:00,45.7,33.4,-100.00,North,0,12.0,17.0,62,0.00,,,0.00,meteohub,2013-03-05 12:15:00,
2013-03-05 06:16:00,45.7,33.8,-100.00,NE,38,16.0,22.0,63,0.00,,,0.00,meteohub,2013-03-05 12:16:00,
2013-03-05 06:17:00,45.7,33.8,-100.00,NNE,17,15.0,22.0,63,0.00,,,0.00,meteohub,2013-03-05 12:17:00,
2013-03-05 06:20:00,45.7,33.4,-100.00,North,5,16.0,22.0,62,0.00,,,0.00,meteohub,2013-03-05 12:20:00,
2013-03-05 06:21:00,45.7,33.4,-100.00,North,355,15.0,22.0,62,0.00,,,0.00,meteohub,2013-03-05 12:21:00,
2013-03-05 06:23:00,45.5,32.9,-100.00,North,0,15.0,22.0,61,0.00,,,0.00,meteohub,2013-03-05 12:23:00,
2013-03-05 06:25:00,45.5,32.9,-100.00,NNE,12,18.0,22.0,61,0.00,,,0.00,meteohub,2013-03-05 12:25:00,
2013-03-05 06:26:00,45.5,32.4,-100.00,NE,35,12.0,22.0,60,0.00,,,0.00,meteohub,2013-03-05 12:26:00,
2013-03-05 06:28:00,45.5,32.4,-100.00,North,9,17.0,22.0,60,0.00,,,0.00,meteohub,2013-03-05 12:28:00,
2013-03-05 06:30:00,45.5,31.6,-100.00,North,355,25.0,25.0,58,0.00,,,0.00,meteohub,2013-03-05 12:30:00,
2013-03-05 06:31:00,45.7,31.8,-100.00,North,355,21.0,24.0,58,0.00,,,0.00,meteohub,2013-03-05 12:31:00,
2013-03-05 06:33:00,45.7,31.3,-100.00,North,5,12.0,24.0,57,0.00,,,0.00,meteohub,2013-03-05 12:33:00,
2013-03-05 06:34:00,45.7,31.3,-100.00,North,5,11.0,24.0,57,0.00,,,0.00,meteohub,2013-03-05 12:34:00,
2013-03-05 06:35:00,45.5,30.7,-100.00,North,5,16.0,31.0,56,0.00,,,0.00,meteohub,2013-03-05 12:35:00,
2013-03-05 06:36:00,45.5,30.2,-100.00,North,0,23.0,31.0,55,0.00,,,0.00,meteohub,2013-03-05 12:36:00,
2013-03-05 06:38:00,45.5,30.7,-100.00,North,11,17.0,31.0,56,0.00,,,0.00,meteohub,2013-03-05 12:38:00,
2013-03-05 06:39:00,45.5,30.7,-100.00,NNE,13,11.0,31.0,56,0.00,,,0.00,meteohub,2013-03-05 12:39:00,
2013-03-05 06:41:00,45.5,30.2,-100.00,North,9,16.0,31.0,55,0.00,,,0.00,meteohub,2013-03-05 12:41:00,
2013-03-05 06:42:00,45.5,30.2,-100.00,North,0,17.0,31.0,55,0.00,,,0.00,meteohub,2013-03-05 12:42:00,
2013-03-05 06:43:00,45.5,30.7,-100.00,North,355,11.0,31.0,56,0.00,,,0.00,meteohub,2013-03-05 12:43:00,
2013-03-05 06:44:00,45.3,30.0,-100.00,NNE,12,19.0,31.0,55,0.00,,,0.00,meteohub,2013-03-05 12:44:00,
2013-03-05 06:47:00,45.1,28.9,-100.00,North,10,9.0,31.0,53,0.00,,,0.00,meteohub,2013-03-05 12:47:00,
2013-03-05 06:49:00,45.1,29.5,-100.00,North,0,10.0,31.0,54,0.00,,,0.00,meteohub,2013-03-05 12:49:00,
2013-03-05 06:53:00,45.0,30.6,-100.00,North,349,6.0,25.0,57,0.00,,,0.00,meteohub,2013-03-05 12:53:00,
2013-03-05 06:54:00,44.8,30.9,-100.00,North,9,15.0,25.0,58,0.00,,,0.00,meteohub,2013-03-05 12:54:00,
2013-03-05 06:58:00,44.4,31.5,-100.00,North,0,13.0,24.0,60,0.00,,,0.00,meteohub,2013-03-05 12:58:00,
2013-03-05 06:59:00,44.4,31.5,-100.00,North,351,13.0,24.0,60,0.00,,,0.00,meteohub,2013-03-05 12:59:00,
2013-03-05 07:00:00,44.4,31.5,-100.00,North,355,7.0,24.0,60,0.00,,,0.00,meteohub,2013-03-05 13:00:00,
2013-03-05 07:03:00,44.2,30.7,-100.00,North,351,9.0,20.0,59,0.00,,,0.00,meteohub,2013-03-05 13:03:00,
2013-03-05 07:04:00,44.2,30.4,-100.00,North,355,16.0,20.0,58,0.00,,,0.00,meteohub,2013-03-05 13:04:00,
2013-03-05 07:05:00,44.2,30.0,-100.00,North,9,17.0,20.0,57,0.00,,,0.00,meteohub,2013-03-05 13:05:00,
2013-03-05 07:08:00,44.4,29.7,-100.00,North,9,20.0,20.0,56,0.00,,,0.00,meteohub,2013-03-05 13:08:00,
2013-03-05 07:09:00,44.6,29.8,-100.00,North,0,13.0,19.0,56,0.00,,,0.00,meteohub,2013-03-05 13:09:00,
2013-03-05 07:10:00,44.6,29.8,-100.00,North,10,10.0,19.0,56,0.00,,,0.00,meteohub,2013-03-05 13:10:00,
2013-03-05 07:13:00,44.6,30.7,-100.00,NNE,13,17.0,23.0,58,0.00,,,0.00,meteohub,2013-03-05 13:13:00,
2013-03-05 07:15:00,44.6,28.0,-100.00,NNE,16,19.0,23.0,52,0.00,,,0.00,meteohub,2013-03-05 13:15:00,
2013-03-05 07:16:00,44.6,29.5,-100.00,North,11,13.0,26.0,55,0.00,,,0.00,meteohub,2013-03-05 13:16:00,
2013-03-05 07:19:00,44.8,30.0,-100.00,North,0,17.0,26.0,56,0.00,,,0.00,meteohub,2013-03-05 13:19:00,
2013-03-05 07:20:00,44.8,30.0,-100.00,North,0,13.0,26.0,56,0.00,,,0.00,meteohub,2013-03-05 13:20:00,
2013-03-05 07:22:00,44.8,30.0,-100.00,North,355,12.0,26.0,56,0.00,,,0.00,meteohub,2013-03-05 13:22:00,
2013-03-05 07:24:00,44.8,30.0,-100.00,NNW,342,13.0,26.0,56,0.00,,,0.00,meteohub,2013-03-05 13:24:00,
2013-03-05 07:25:00,44.8,30.0,-100.00,North,5,7.0,26.0,56,0.00,,,0.00,meteohub,2013-03-05 13:25:00,
2013-03-05 07:27:00,44.8,30.0,-100.00,North,5,14.0,26.0,56,0.00,,,0.00,meteohub,2013-03-05 13:27:00,
2013-03-05 07:29:00,44.8,30.0,-100.00,North,5,17.0,26.0,56,0.00,,,0.00,meteohub,2013-03-05 13:29:00,
2013-03-05 07:30:00,44.8,30.0,-100.00,North,5,13.0,24.0,56,0.00,,,0.00,meteohub,2013-03-05 13:30:00,
2013-03-05 07:31:00,44.8,30.0,-100.00,North,0,12.0,24.0,56,0.00,,,0.00,meteohub,2013-03-05 13:31:00,
2013-03-05 07:32:00,44.8,30.0,-100.00,NNW,344,13.0,24.0,56,0.00,,,0.00,meteohub,2013-03-05 13:32:00,
2013-03-05 07:34:00,44.8,30.0,-100.00,NNW,344,15.0,24.0,56,0.00,,,0.00,meteohub,2013-03-05 13:34:00,
2013-03-05 07:36:00,45.0,30.2,-100.00,North,355,23.0,23.0,56,0.00,,,0.00,meteohub,2013-03-05 13:36:00,
2013-03-05 07:37:00,45.0,30.2,-100.00,North,349,11.0,22.0,56,0.00,,,0.00,meteohub,2013-03-05 13:37:00,
2013-03-05 07:40:00,45.0,30.2,-100.00,North,0,11.0,22.0,56,0.00,,,0.00,meteohub,2013-03-05 13:40:00,
2013-03-05 07:41:00,45.0,30.2,-100.00,North,5,12.0,25.0,56,0.00,,,0.00,meteohub,2013-03-05 13:41:00,
2013-03-05 07:43:00,45.0,30.2,-100.00,NNW,343,15.0,25.0,56,0.00,,,0.00,meteohub,2013-03-05 13:43:00,
2013-03-05 07:45:00,45.1,30.4,-100.00,NNW,342,12.0,25.0,56,0.00,,,0.00,meteohub,2013-03-05 13:45:00,
2013-03-05 07:46:00,45.1,30.0,-100.00,North,355,25.0,25.0,55,0.00,,,0.00,meteohub,2013-03-05 13:46:00,
2013-03-05 07:48:00,45.1,30.0,-100.00,North,355,9.0,25.0,55,0.00,,,0.00,meteohub,2013-03-05 13:48:00,
2013-03-05 07:50:00,45.1,30.0,-100.00,North,9,18.0,25.0,55,0.00,,,0.00,meteohub,2013-03-05 13:50:00,
2013-03-05 07:51:00,45.1,30.0,-100.00,North,355,13.0,25.0,55,0.00,,,0.00,meteohub,2013-03-05 13:51:00,
2013-03-05 07:52:00,45.1,30.0,-100.00,NNW,344,13.0,25.0,55,0.00,,,0.00,meteohub,2013-03-05 13:52:00,
2013-03-05 07:53:00,45.1,30.0,-100.00,North,11,15.0,25.0,55,0.00,,,0.00,meteohub,2013-03-05 13:53:00,
2013-03-05 07:55:00,45.3,30.0,-100.00,North,355,13.0,25.0,55,0.00,,,0.00,meteohub,2013-03-05 13:55:00,
2013-03-05 07:56:00,45.3,30.0,-100.00,NW,325,6.0,25.0,55,0.00,,,0.00,meteohub,2013-03-05 13:56:00,
2013-03-05 07:58:00,45.3,29.7,-100.00,North,0,12.0,25.0,54,0.00,,,0.00,meteohub,2013-03-05 13:58:00,
2013-03-05 08:01:00,45.5,29.8,-100.00,North,0,17.0,25.0,54,0.00,,,0.00,meteohub,2013-03-05 14:01:00,
2013-03-05 08:03:00,45.5,29.8,-100.00,NNE,12,17.0,25.0,54,0.00,,,0.00,meteohub,2013-03-05 14:03:00,
2013-03-05 08:06:00,45.5,29.3,-100.00,North,355,11.0,23.0,53,0.00,,,0.00,meteohub,2013-03-05 14:06:00,
2013-03-05 08:08:00,45.5,29.8,-100.00,North,5,22.0,23.0,54,0.00,,,0.00,meteohub,2013-03-05 14:08:00,
2013-03-05 08:11:00,45.7,30.0,-100.00,North,351,13.0,24.0,54,0.00,,,0.00,meteohub,2013-03-05 14:11:00,
2013-03-05 08:12:00,45.7,29.5,-100.00,North,5,15.0,24.0,53,0.00,,,0.00,meteohub,2013-03-05 14:12:00,
2013-03-05 08:13:00,45.7,29.5,-100.00,North,355,10.0,24.0,53,0.00,,,0.00,meteohub,2013-03-05 14:13:00,
2013-03-05 08:16:00,45.9,29.3,-100.00,NNE,23,12.0,24.0,52,0.00,,,0.00,meteohub,2013-03-05 14:16:00,
2013-03-05 08:17:00,46.0,29.8,-100.00,North,9,15.0,24.0,53,0.00,,,0.00,meteohub,2013-03-05 14:17:00,
2013-03-05 08:18:00,46.0,27.9,-100.00,NNE,15,18.0,24.0,49,0.00,,,0.00,meteohub,2013-03-05 14:18:00,
2013-03-05 08:19:00,46.0,27.9,-100.00,NNE,13,12.0,24.0,49,0.00,,,0.00,meteohub,2013-03-05 14:19:00,
2013-03-05 08:21:00,46.0,29.8,-100.00,North,351,13.0,24.0,53,0.00,,,0.00,meteohub,2013-03-05 14:21:00,
2013-03-05 08:23:00,46.0,29.8,-100.00,North,355,18.0,24.0,53,0.00,,,0.00,meteohub,2013-03-05 14:23:00,
2013-03-05 08:24:00,46.0,29.8,-100.00,North,355,19.0,24.0,53,0.00,,,0.00,meteohub,2013-03-05 14:24:00,
2013-03-05 08:28:00,46.0,28.9,-100.00,NNW,340,15.0,25.0,51,0.00,,,0.00,meteohub,2013-03-05 14:28:00,
2013-03-05 08:29:00,46.0,28.9,-100.00,North,0,24.0,25.0,51,0.00,,,0.00,meteohub,2013-03-05 14:29:00,
2013-03-05 08:33:00,46.2,28.6,-100.00,North,355,18.0,27.0,50,0.00,,,0.00,meteohub,2013-03-05 14:33:00,
2013-03-05 08:34:00,46.2,28.6,-100.00,North,355,13.0,27.0,50,0.00,,,0.00,meteohub,2013-03-05 14:34:00,
2013-03-05 08:35:00,46.4,29.3,-100.00,NNW,340,23.0,27.0,51,0.00,,,0.00,meteohub,2013-03-05 14:35:00,
2013-03-05 08:38:00,46.6,27.5,-100.00,North,5,20.0,27.0,47,0.00,,,0.00,meteohub,2013-03-05 14:38:00,
2013-03-05 08:40:00,46.6,27.0,-100.00,North,355,21.0,27.0,46,0.00,,,0.00,meteohub,2013-03-05 14:40:00,
2013-03-05 08:44:00,46.6,27.9,-100.00,North,351,26.0,28.0,48,0.00,,,0.00,meteohub,2013-03-05 14:44:00,
2013-03-05 08:45:00,46.8,27.1,-100.00,North,349,15.0,29.0,46,0.00,,,0.00,meteohub,2013-03-05 14:45:00,
2013-03-05 08:46:00,46.8,27.1,-100.00,North,351,19.0,29.0,46,0.00,,,0.00,meteohub,2013-03-05 14:46:00,
2013-03-05 08:49:00,46.8,27.1,-100.00,North,0,19.0,29.0,46,0.00,,,0.00,meteohub,2013-03-05 14:49:00,
2013-03-05 08:50:00,46.8,27.1,-100.00,North,349,20.0,30.0,46,0.00,,,0.00,meteohub,2013-03-05 14:50:00,
2013-03-05 08:51:00,46.8,27.1,-100.00,North,0,17.0,30.0,46,0.00,,,0.00,meteohub,2013-03-05 14:51:00,
2013-03-05 08:54:00,46.8,26.6,-100.00,NNE,15,18.0,30.0,45,0.00,,,0.00,meteohub,2013-03-05 14:54:00,
2013-03-05 08:55:00,46.8,26.6,-100.00,North,0,26.0,31.0,45,0.00,,,0.00,meteohub,2013-03-05 14:55:00,
2013-03-05 08:56:00,46.8,27.1,-100.00,North,5,18.0,31.0,46,0.00,,,0.00,meteohub,2013-03-05 14:56:00,
2013-03-05 08:57:00,46.8,26.6,-100.00,North,5,20.0,31.0,45,0.00,,,0.00,meteohub,2013-03-05 14:57:00,
2013-03-05 08:59:00,46.9,27.3,-100.00,North,5,15.0,31.0,46,0.00,,,0.00,meteohub,2013-03-05 14:59:00,
2013-03-05 09:01:00,47.3,27.5,-100.00,North,355,11.0,31.0,46,0.00,,,0.00,meteohub,2013-03-05 15:01:00,
2013-03-05 09:02:00,47.5,27.7,-100.00,North,9,13.0,31.0,46,0.00,,,0.00,meteohub,2013-03-05 15:02:00,
2013-03-05 09:04:00,47.7,26.8,-100.00,NNE,20,21.0,31.0,44,0.00,,,0.00,meteohub,2013-03-05 15:04:00,
2013-03-05 09:06:00,47.8,27.0,-100.00,North,5,11.0,31.0,44,0.00,,,0.00,meteohub,2013-03-05 15:06:00,
2013-03-05 09:07:00,47.8,27.0,-100.00,NNW,348,13.0,31.0,44,0.00,,,0.00,meteohub,2013-03-05 15:07:00,
2013-03-05 09:10:00,47.8,25.3,-100.00,NNW,341,22.0,29.0,41,0.00,,,0.00,meteohub,2013-03-05 15:10:00,
2013-03-05 09:12:00,47.8,25.3,-100.00,NNW,332,19.0,29.0,41,0.00,,,0.00,meteohub,2013-03-05 15:12:00,
2013-03-05 09:16:00,47.7,25.7,-100.00,North,355,21.0,31.0,42,0.00,,,0.00,meteohub,2013-03-05 15:16:00,
2013-03-05 09:17:00,47.8,25.9,-100.00,NNE,19,16.0,31.0,42,0.00,,,0.00,meteohub,2013-03-05 15:17:00,
2013-03-05 09:18:00,47.7,25.7,-100.00,North,350,14.0,31.0,42,0.00,,,0.00,meteohub,2013-03-05 15:18:00,
2013-03-05 09:21:00,48.0,24.8,-100.00,NNE,17,11.0,31.0,40,0.00,,,0.00,meteohub,2013-03-05 15:21:00,
2013-03-05 09:22:00,48.2,26.2,-100.00,NNW,345,19.0,31.0,42,0.00,,,0.00,meteohub,2013-03-05 15:22:00,
2013-03-05 09:23:00,48.2,25.0,-100.00,North,355,14.0,31.0,40,0.00,,,0.00,meteohub,2013-03-05 15:23:00,
2013-03-05 09:26:00,48.4,25.7,-100.00,NNE,17,12.0,31.0,41,0.00,,,0.00,meteohub,2013-03-05 15:26:00,
2013-03-05 09:27:00,48.4,25.2,-100.00,NNE,13,22.0,31.0,40,0.00,,,0.00,meteohub,2013-03-05 15:27:00,
2013-03-05 09:28:00,48.4,24.6,-100.00,North,350,17.0,31.0,39,0.00,,,0.00,meteohub,2013-03-05 15:28:00,
2013-03-05 09:31:00,48.6,25.3,-100.00,North,5,16.0,26.0,40,0.00,,,0.00,meteohub,2013-03-05 15:31:00,
2013-03-05 09:32:00,48.7,24.8,-100.00,North,0,10.0,26.0,39,0.00,,,0.00,meteohub,2013-03-05 15:32:00,
2013-03-05 09:33:00,48.9,25.7,-100.00,North,355,21.0,26.0,40,0.00,,,0.00,meteohub,2013-03-05 15:33:00,
2013-03-05 09:36:00,49.3,23.5,-100.00,North,11,17.0,26.0,36,0.00,,,0.00,meteohub,2013-03-05 15:36:00,
2013-03-05 09:38:00,48.9,23.2,-100.00,NNW,347,18.0,26.0,36,0.00,,,0.00,meteohub,2013-03-05 15:38:00,
2013-03-05 09:39:00,48.9,24.4,-100.00,NNW,340,19.0,26.0,38,0.00,,,0.00,meteohub,2013-03-05 15:39:00,
2013-03-05 09:41:00,48.9,23.2,-100.00,North,10,23.0,25.0,36,0.00,,,0.00,meteohub,2013-03-05 15:41:00,
2013-03-05 09:43:00,48.7,22.3,-100.00,North,5,17.0,25.0,35,0.00,,,0.00,meteohub,2013-03-05 15:43:00,
2013-03-05 09:44:00,48.7,23.0,-100.00,North,5,18.0,25.0,36,0.00,,,0.00,meteohub,2013-03-05 15:44:00,
2013-03-05 09:47:00,48.9,23.7,-100.00,North,11,22.0,26.0,37,0.00,,,0.00,meteohub,2013-03-05 15:47:00,
2013-03-05 09:48:00,48.9,22.5,-100.00,NNE,28,16.0,26.0,35,0.00,,,0.00,meteohub,2013-03-05 15:48:00,
2013-03-05 09:49:00,48.9,22.5,-100.00,North,0,20.0,26.0,35,0.00,,,0.00,meteohub,2013-03-05 15:49:00,
2013-03-05 09:52:00,49.3,23.5,-100.00,North,9,27.0,27.0,36,0.00,,,0.00,meteohub,2013-03-05 15:52:00,
2013-03-05 09:53:00,49.3,22.1,-100.00,NNW,347,22.0,26.0,34,0.00,,,0.00,meteohub,2013-03-05 15:53:00,
2013-03-05 09:54:00,49.3,22.1,-100.00,NNW,344,16.0,26.0,34,0.00,,,0.00,meteohub,2013-03-05 15:54:00,
2013-03-05 09:55:00,49.3,22.1,-100.00,NNE,16,10.0,26.0,34,0.00,,,0.00,meteohub,2013-03-05 15:55:00,
2013-03-05 09:57:00,49.5,22.3,-100.00,North,5,15.0,27.0,34,0.00,,,0.00,meteohub,2013-03-05 15:57:00,
2013-03-05 09:58:00,49.8,23.2,-100.00,NNW,346,17.0,27.0,35,0.00,,,0.00,meteohub,2013-03-05 15:58:00,
2013-03-05 09:59:00,49.8,23.2,-100.00,NNW,343,21.0,27.0,35,0.00,,,0.00,meteohub,2013-03-05 15:59:00,
2013-03-05 10:00:00,49.8,21.9,-100.00,North,0,20.0,27.0,33,0.00,,,0.00,meteohub,2013-03-05 16:00:00,
2013-03-05 10:02:00,49.8,22.6,-100.00,North,9,15.0,27.0,34,0.00,,,0.00,meteohub,2013-03-05 16:02:00,
2013-03-05 10:04:00,49.8,21.9,-100.00,North,11,18.0,27.0,33,0.00,,,0.00,meteohub,2013-03-05 16:04:00,
2013-03-05 10:05:00,49.6,21.0,-100.00,North,350,14.0,27.0,32,0.00,,,0.00,meteohub,2013-03-05 16:05:00,
2013-03-05 10:09:00,49.6,21.7,-100.00,North,351,15.0,27.0,33,0.00,,,0.00,meteohub,2013-03-05 16:09:00,
2013-03-05 10:11:00,49.6,22.5,-100.00,North,5,18.0,25.0,34,0.00,,,0.00,meteohub,2013-03-05 16:11:00,
2013-03-05 10:14:00,49.6,22.5,-100.00,North,355,21.0,25.0,34,0.00,,,0.00,meteohub,2013-03-05 16:14:00,
2013-03-05 10:15:00,49.6,22.5,-100.00,NNW,342,20.0,26.0,34,0.00,,,0.00,meteohub,2013-03-05 16:15:00,
2013-03-05 10:16:00,49.6,22.5,-100.00,NNW,335,22.0,26.0,34,0.00,,,0.00,meteohub,2013-03-05 16:16:00,
2013-03-05 10:19:00,49.8,22.6,-100.00,NNW,341,12.0,26.0,34,0.00,,,0.00,meteohub,2013-03-05 16:19:00,
2013-03-05 10:20:00,49.8,22.6,-100.00,NNW,337,19.0,27.0,34,0.00,,,0.00,meteohub,2013-03-05 16:20:00,
2013-03-05 10:22:00,49.8,21.9,-100.00,NNW,338,19.0,27.0,33,0.00,,,0.00,meteohub,2013-03-05 16:22:00,
2013-03-05 10:24:00,49.8,23.2,-100.00,North,355,23.0,27.0,35,0.00,,,0.00,meteohub,2013-03-05 16:24:00,
2013-03-05 10:25:00,50.2,22.1,-100.00,NNW,340,14.0,29.0,33,0.00,,,0.00,meteohub,2013-03-05 16:25:00,
2013-03-05 10:26:00,50.2,22.8,-100.00,NNW,337,11.0,29.0,34,0.00,,,0.00,meteohub,2013-03-05 16:26:00,
2013-03-05 10:27:00,49.8,21.2,-100.00,NNW,340,14.0,29.0,32,0.00,,,0.00,meteohub,2013-03-05 16:27:00,
2013-03-05 10:29:00,49.8,21.9,-100.00,North,355,16.0,29.0,33,0.00,,,0.00,meteohub,2013-03-05 16:29:00,
2013-03-05 10:31:00,49.8,21.2,-100.00,NNW,342,22.0,29.0,32,0.00,,,0.00,meteohub,2013-03-05 16:31:00,
2013-03-05 10:33:00,50.2,22.1,-100.00,NNW,334,22.0,29.0,33,0.00,,,0.00,meteohub,2013-03-05 16:33:00,
2013-03-05 10:34:00,50.2,22.1,-100.00,North,5,15.0,29.0,33,0.00,,,0.00,meteohub,2013-03-05 16:34:00,
2013-03-05 10:36:00,50.2,22.8,-100.00,NNW,346,11.0,29.0,34,0.00,,,0.00,meteohub,2013-03-05 16:36:00,
2013-03-05 10:38:00,50.4,22.3,-100.00,NNW,336,23.0,29.0,33,0.00,,,0.00,meteohub,2013-03-05 16:38:00,
2013-03-05 10:40:00,50.5,21.7,-100.00,North,350,10.0,29.0,32,0.00,,,0.00,meteohub,2013-03-05 16:40:00,
2013-03-05 10:41:00,50.5,22.5,-100.00,NNW,344,15.0,28.0,33,0.00,,,0.00,meteohub,2013-03-05 16:41:00,
2013-03-05 10:43:00,50.5,22.5,-100.00,NNW,345,17.0,28.0,33,0.00,,,0.00,meteohub,2013-03-05 16:43:00,
2013-03-05 10:45:00,50.7,21.9,-100.00,NNW,348,15.0,25.0,32,0.00,,,0.00,meteohub,2013-03-05 16:45:00,
2013-03-05 10:46:00,50.7,21.9,-100.00,NNE,14,13.0,25.0,32,0.00,,,0.00,meteohub,2013-03-05 16:46:00,
2013-03-05 10:48:00,50.7,20.5,-100.00,North,355,13.0,25.0,30,0.00,,,0.00,meteohub,2013-03-05 16:48:00,
2013-03-05 10:50:00,50.7,20.5,-100.00,North,0,14.0,26.0,30,0.00,,,0.00,meteohub,2013-03-05 16:50:00,
2013-03-05 10:53:00,50.7,20.5,-100.00,North,355,19.0,26.0,30,0.00,,,0.00,meteohub,2013-03-05 16:53:00,
2013-03-05 10:54:00,50.5,19.4,-100.00,NNE,15,24.0,26.0,29,0.00,,,0.00,meteohub,2013-03-05 16:54:00,
2013-03-05 10:55:00,50.4,20.1,-100.00,NNE,17,22.0,28.0,30,0.00,,,0.00,meteohub,2013-03-05 16:55:00,
2013-03-05 10:58:00,50.2,20.7,-100.00,North,355,25.0,28.0,31,0.00,,,0.00,meteohub,2013-03-05 16:58:00,
2013-03-05 10:59:00,50.2,18.3,-100.00,North,355,24.0,28.0,28,0.00,,,0.00,meteohub,2013-03-05 16:59:00,
2013-03-05 11:00:00,50.2,19.2,-100.00,NNW,344,17.0,28.0,29,0.00,,,0.00,meteohub,2013-03-05 17:00:00,
2013-03-05 11:03:00,50.2,19.9,-100.00,NW,319,18.0,28.0,30,0.00,,,0.00,meteohub,2013-03-05 17:03:00,
2013-03-05 11:04:00,50.2,19.9,-100.00,North,350,16.0,28.0,30,0.00,,,0.00,meteohub,2013-03-05 17:04:00,
2013-03-05 11:06:00,50.4,20.1,-100.00,North,355,18.0,31.0,30,0.00,,,0.00,meteohub,2013-03-05 17:06:00,
2013-03-05 11:09:00,51.1,20.7,-100.00,NNW,348,21.0,31.0,30,0.00,,,0.00,meteohub,2013-03-05 17:09:00,
2013-03-05 11:10:00,51.1,19.0,-100.00,NNW,340,22.0,31.0,28,0.00,,,0.00,meteohub,2013-03-05 17:10:00,
2013-03-05 11:11:00,51.1,18.3,-100.00,NNW,348,20.0,31.0,27,0.00,,,0.00,meteohub,2013-03-05 17:11:00,
2013-03-05 11:14:00,50.7,18.9,-100.00,North,355,14.0,31.0,28,0.00,,,0.00,meteohub,2013-03-05 17:14:00,
2013-03-05 11:15:00,50.7,18.9,-100.00,NNE,24,20.0,31.0,28,0.00,,,0.00,meteohub,2013-03-05 17:15:00,
2013-03-05 11:16:00,50.7,18.9,-100.00,North,355,18.0,28.0,28,0.00,,,0.00,meteohub,2013-03-05 17:16:00,
2013-03-05 11:19:00,50.7,18.0,-100.00,NNW,342,17.0,28.0,27,0.00,,,0.00,meteohub,2013-03-05 17:19:00,
2013-03-05 11:20:00,50.7,18.0,-100.00,NNW,333,17.0,30.0,27,0.00,,,0.00,meteohub,2013-03-05 17:20:00,
2013-03-05 11:22:00,50.7,18.0,-100.00,NNE,13,15.0,30.0,27,0.00,,,0.00,meteohub,2013-03-05 17:22:00,
2013-03-05 11:24:00,51.3,19.2,-100.00,North,0,11.0,30.0,28,0.00,,,0.00,meteohub,2013-03-05 17:24:00,
2013-03-05 11:25:00,51.4,19.4,-100.00,NNW,344,14.0,30.0,28,0.00,,,0.00,meteohub,2013-03-05 17:25:00,
2013-03-05 11:27:00,51.6,21.2,-100.00,North,355,11.0,30.0,30,0.00,,,0.00,meteohub,2013-03-05 17:27:00,
2013-03-05 11:28:00,52.0,19.0,-100.00,NNW,347,19.0,30.0,27,0.00,,,0.00,meteohub,2013-03-05 17:28:00,
2013-03-05 11:30:00,52.3,20.1,-100.00,North,355,13.0,30.0,28,0.00,,,0.00,meteohub,2013-03-05 17:30:00,
2013-03-05 11:32:00,52.3,21.0,-100.00,NNW,332,12.0,30.0,29,0.00,,,0.00,meteohub,2013-03-05 17:32:00,
2013-03-05 11:34:00,52.0,19.9,-100.00,North,9,17.0,30.0,28,0.00,,,0.00,meteohub,2013-03-05 17:34:00,
2013-03-05 11:35:00,52.0,20.7,-100.00,NW,314,15.0,30.0,29,0.00,,,0.00,meteohub,2013-03-05 17:35:00,
2013-03-05 11:37:00,51.6,19.6,-100.00,NW,321,17.0,27.0,28,0.00,,,0.00,meteohub,2013-03-05 17:37:00,
2013-03-05 11:40:00,51.6,21.2,-100.00,NNW,347,17.0,27.0,30,0.00,,,0.00,meteohub,2013-03-05 17:40:00,
2013-03-05 11:41:00,51.6,21.2,-100.00,North,5,16.0,27.0,30,0.00,,,0.00,meteohub,2013-03-05 17:41:00,
2013-03-05 11:42:00,51.6,20.3,-100.00,NNW,340,16.0,27.0,29,0.00,,,0.00,meteohub,2013-03-05 17:42:00,
2013-03-05 11:45:00,52.0,20.7,-100.00,North,349,16.0,27.0,29,0.00,,,0.00,meteohub,2013-03-05 17:45:00,
2013-03-05 11:46:00,52.0,19.9,-100.00,NW,319,16.0,27.0,28,0.00,,,0.00,meteohub,2013-03-05 17:46:00,
2013-03-05 11:47:00,52.0,19.9,-100.00,NNW,340,22.0,27.0,28,0.00,,,0.00,meteohub,2013-03-05 17:47:00,
2013-03-05 11:50:00,51.6,19.6,-100.00,NNW,343,24.0,26.0,28,0.00,,,0.00,meteohub,2013-03-05 17:50:00,
2013-03-05 11:51:00,51.6,19.6,-100.00,North,5,21.0,26.0,28,0.00,,,0.00,meteohub,2013-03-05 17:51:00,
2013-03-05 11:52:00,51.6,18.7,-100.00,NNW,336,20.0,26.0,27,0.00,,,0.00,meteohub,2013-03-05 17:52:00,
2013-03-05 11:53:00,51.4,18.5,-100.00,NNW,328,12.0,26.0,27,0.00,,,0.00,meteohub,2013-03-05 17:53:00,
2013-03-05 11:55:00,51.4,19.4,-100.00,NNW,327,13.0,27.0,28,0.00,,,0.00,meteohub,2013-03-05 17:55:00,
2013-03-05 11:56:00,51.6,18.7,-100.00,NNW,346,13.0,27.0,27,0.00,,,0.00,meteohub,2013-03-05 17:56:00,
2013-03-05 11:57:00,51.6,19.6,-100.00,NNW,329,17.0,27.0,28,0.00,,,0.00,meteohub,2013-03-05 17:57:00,
2013-03-05 11:58:00,51.6,17.8,-100.00,NNW,343,13.0,27.0,26,0.00,,,0.00,meteohub,2013-03-05 17:58:00,
2013-03-05 12:01:00,51.6,18.7,-100.00,NW,321,13.0,27.0,27,0.00,,,0.00,meteohub,2013-03-05 18:01:00,
2013-03-05 12:02:00,52.0,19.0,-100.00,NNW,341,16.0,27.0,27,0.00,,,0.00,meteohub,2013-03-05 18:02:00,
2013-03-05 12:03:00,52.0,19.9,-100.00,NNW,343,16.0,27.0,28,0.00,,,0.00,meteohub,2013-03-05 18:03:00,
2013-03-05 12:06:00,52.3,20.1,-100.00,North,0,12.0,27.0,28,0.00,,,0.00,meteohub,2013-03-05 18:06:00,
2013-03-05 12:07:00,52.3,20.1,-100.00,North,9,14.0,27.0,28,0.00,,,0.00,meteohub,2013-03-05 18:07:00,
2013-03-05 12:08:00,52.5,19.4,-100.00,NNW,348,16.0,27.0,27,0.00,,,0.00,meteohub,2013-03-05 18:08:00,
2013-03-05 12:12:00,52.5,19.4,-100.00,NNW,348,21.0,26.0,27,0.00,,,0.00,meteohub,2013-03-05 18:12:00,
2013-03-05 12:13:00,52.5,18.7,-100.00,NNW,339,13.0,26.0,26,0.00,,,0.00,meteohub,2013-03-05 18:13:00,
2013-03-05 12:17:00,52.3,18.5,-100.00,NNE,13,22.0,26.0,26,0.00,,,0.00,meteohub,2013-03-05 18:17:00,
2013-03-05 12:18:00,52.3,18.5,-100.00,North,355,20.0,26.0,26,0.00,,,0.00,meteohub,2013-03-05 18:18:00,
2013-03-05 12:22:00,52.5,19.4,-100.00,NNW,332,16.0,26.0,27,0.00,,,0.00,meteohub,2013-03-05 18:22:00,
2013-03-05 12:23:00,52.5,19.4,-100.00,North,355,11.0,26.0,27,0.00,,,0.00,meteohub,2013-03-05 18:23:00,
2013-03-05 12:27:00,53.2,20.1,-100.00,North,350,17.0,26.0,27,0.00,,,0.00,meteohub,2013-03-05 18:27:00,
2013-03-05 12:28:00,53.2,17.4,-100.00,NNW,331,16.0,26.0,24,0.00,,,0.00,meteohub,2013-03-05 18:28:00,
2013-03-05 12:29:00,53.2,20.1,-100.00,NW,325,17.0,26.0,27,0.00,,,0.00,meteohub,2013-03-05 18:29:00,
2013-03-05 12:32:00,52.9,19.8,-100.00,North,5,20.0,24.0,27,0.00,,,0.00,meteohub,2013-03-05 18:32:00,
2013-03-05 12:33:00,52.9,20.7,-100.00,NNW,340,17.0,24.0,28,0.00,,,0.00,meteohub,2013-03-05 18:33:00,
2013-03-05 12:34:00,52.9,19.8,-100.00,North,351,13.0,24.0,27,0.00,,,0.00,meteohub,2013-03-05 18:34:00,
2013-03-05 12:37:00,52.9,18.9,-100.00,North,0,22.0,27.0,26,0.00,,,0.00,meteohub,2013-03-05 18:37:00,
2013-03-05 12:38:00,53.1,19.9,-100.00,North,351,13.0,27.0,27,0.00,,,0.00,meteohub,2013-03-05 18:38:00,
2013-03-05 12:39:00,53.1,19.9,-100.00,NNW,343,17.0,27.0,27,0.00,,,0.00,meteohub,2013-03-05 18:39:00,
2013-03-05 12:42:00,53.1,19.9,-100.00,North,0,12.0,27.0,27,0.00,,,0.00,meteohub,2013-03-05 18:42:00,
2013-03-05 12:43:00,53.1,19.0,-100.00,NNE,19,14.0,27.0,26,0.00,,,0.00,meteohub,2013-03-05 18:43:00,
2013-03-05 12:46:00,52.9,19.8,-100.00,NNE,17,15.0,24.0,27,0.00,,,0.00,meteohub,2013-03-05 18:46:00,
2013-03-05 12:47:00,52.9,19.8,-100.00,NNW,342,18.0,24.0,27,0.00,,,0.00,meteohub,2013-03-05 18:47:00,
2013-03-05 12:48:00,53.1,20.8,-100.00,NNW,346,17.0,24.0,28,0.00,,,0.00,meteohub,2013-03-05 18:48:00,
2013-03-05 12:49:00,53.2,21.0,-100.00,NNW,348,19.0,24.0,28,0.00,,,0.00,meteohub,2013-03-05 18:49:00,
2013-03-05 12:51:00,53.4,21.2,-100.00,NNW,344,12.0,24.0,28,0.00,,,0.00,meteohub,2013-03-05 18:51:00,
2013-03-05 12:52:00,53.6,21.2,-100.00,NW,324,15.0,24.0,28,0.00,,,0.00,meteohub,2013-03-05 18:52:00,
2013-03-05 12:53:00,53.8,19.8,-100.00,NW,324,9.0,24.0,26,0.00,,,0.00,meteohub,2013-03-05 18:53:00,
2013-03-05 12:54:00,53.8,19.8,-100.00,NNW,341,11.0,24.0,26,0.00,,,0.00,meteohub,2013-03-05 18:54:00,
2013-03-05 12:57:00,53.8,23.9,-100.00,North,350,10.0,23.0,31,0.00,,,0.00,meteohub,2013-03-05 18:57:00,
2013-03-05 12:58:00,54.0,20.7,-100.00,North,355,13.0,23.0,27,0.00,,,0.00,meteohub,2013-03-05 18:58:00,
2013-03-05 12:59:00,54.1,20.8,-100.00,NNW,346,8.0,23.0,27,0.00,,,0.00,meteohub,2013-03-05 18:59:00,
2013-03-05 13:03:00,54.1,21.7,-100.00,North,355,20.0,22.0,28,0.00,,,0.00,meteohub,2013-03-05 19:03:00,
2013-03-05 13:04:00,54.1,20.8,-100.00,North,0,15.0,22.0,27,0.00,,,0.00,meteohub,2013-03-05 19:04:00,
2013-03-05 13:05:00,54.1,20.8,-100.00,NNW,346,11.0,22.0,27,0.00,,,0.00,meteohub,2013-03-05 19:05:00,
2013-03-05 13:09:00,54.1,20.8,-100.00,NW,321,18.0,23.0,27,0.00,,,0.00,meteohub,2013-03-05 19:09:00,
2013-03-05 13:10:00,54.1,20.8,-100.00,NW,323,10.0,23.0,27,0.00,,,0.00,meteohub,2013-03-05 19:10:00,
2013-03-05 13:14:00,54.1,20.8,-100.00,North,350,13.0,23.0,27,0.00,,,0.00,meteohub,2013-03-05 19:14:00,
2013-03-05 13:15:00,54.1,21.7,-100.00,NNW,327,10.0,23.0,28,0.00,,,0.00,meteohub,2013-03-05 19:15:00,
2013-03-05 13:19:00,54.1,20.8,-100.00,NNW,336,15.0,23.0,27,0.00,,,0.00,meteohub,2013-03-05 19:19:00,
2013-03-05 13:20:00,54.1,20.8,-100.00,North,351,11.0,24.0,27,0.00,,,0.00,meteohub,2013-03-05 19:20:00,
2013-03-05 13:24:00,54.5,21.2,-100.00,NNW,346,13.0,24.0,27,0.00,,,0.00,meteohub,2013-03-05 19:24:00,
2013-03-05 13:25:00,54.5,22.1,-100.00,NNW,339,14.0,24.0,28,0.00,,,0.00,meteohub,2013-03-05 19:25:00,
2013-03-05 13:26:00,54.5,22.1,-100.00,NNW,346,14.0,24.0,28,0.00,,,0.00,meteohub,2013-03-05 19:26:00,
2013-03-05 13:29:00,54.7,21.4,-100.00,NW,326,10.0,24.0,27,0.00,,,0.00,meteohub,2013-03-05 19:29:00,
2013-03-05 13:30:00,54.7,21.4,-100.00,NNW,329,13.0,24.0,27,0.00,,,0.00,meteohub,2013-03-05 19:30:00,
2013-03-05 13:31:00,54.7,21.4,-100.00,NW,315,24.0,24.0,27,0.00,,,0.00,meteohub,2013-03-05 19:31:00,
2013-03-05 13:34:00,54.3,20.1,-100.00,NNW,340,16.0,24.0,26,0.00,,,0.00,meteohub,2013-03-05 19:34:00,
2013-03-05 13:36:00,54.3,20.1,-100.00,North,0,15.0,24.0,26,0.00,,,0.00,meteohub,2013-03-05 19:36:00,
2013-03-05 13:40:00,54.7,19.6,-100.00,NNW,336,12.0,24.0,25,0.00,,,0.00,meteohub,2013-03-05 19:40:00,
2013-03-05 13:41:00,54.7,20.5,-100.00,WNW,302,15.0,24.0,26,0.00,,,0.00,meteohub,2013-03-05 19:41:00,
2013-03-05 13:45:00,54.3,19.2,-100.00,NNW,332,5.0,24.0,25,0.00,,,0.00,meteohub,2013-03-05 19:45:00,
2013-03-05 13:46:00,54.3,19.2,-100.00,NW,325,9.0,24.0,25,0.00,,,0.00,meteohub,2013-03-05 19:46:00,
2013-03-05 13:47:00,54.3,20.1,-100.00,NNW,333,18.0,24.0,26,0.00,,,0.00,meteohub,2013-03-05 19:47:00,
2013-03-05 13:51:00,54.1,19.9,-100.00,NNW,336,14.0,23.0,26,0.00,,,0.00,meteohub,2013-03-05 19:51:00,
2013-03-05 13:52:00,54.1,19.0,-100.00,NNW,327,12.0,23.0,25,0.00,,,0.00,meteohub,2013-03-05 19:52:00,
2013-03-05 13:56:00,54.5,20.3,-100.00,North,355,13.0,23.0,26,0.00,,,0.00,meteohub,2013-03-05 19:56:00,
2013-03-05 13:57:00,54.5,20.3,-100.00,North,5,13.0,23.0,26,0.00,,,0.00,meteohub,2013-03-05 19:57:00,
2013-03-05 14:02:00,54.5,19.4,-100.00,NNW,336,9.0,23.0,25,0.00,,,0.00,meteohub,2013-03-05 20:02:00,
2013-03-05 14:03:00,54.5,20.3,-100.00,NNW,342,16.0,23.0,26,0.00,,,0.00,meteohub,2013-03-05 20:03:00,
2013-03-05 14:07:00,54.3,19.2,-100.00,NNW,335,20.0,23.0,25,0.00,,,0.00,meteohub,2013-03-05 20:07:00,
2013-03-05 14:08:00,54.3,18.3,-100.00,WNW,301,14.0,23.0,24,0.00,,,0.00,meteohub,2013-03-05 20:08:00,
2013-03-05 14:09:00,54.1,17.1,-100.00,NNW,327,17.0,23.0,23,0.00,,,0.00,meteohub,2013-03-05 20:09:00,
2013-03-05 14:12:00,54.1,18.1,-100.00,NNW,348,17.0,23.0,24,0.00,,,0.00,meteohub,2013-03-05 20:12:00,
2013-03-05 14:13:00,54.1,18.1,-100.00,NNW,336,16.0,23.0,24,0.00,,,0.00,meteohub,2013-03-05 20:13:00,
2013-03-05 14:14:00,54.1,18.1,-100.00,NW,323,8.0,23.0,24,0.00,,,0.00,meteohub,2013-03-05 20:14:00,
2013-03-05 14:17:00,54.1,17.1,-100.00,NNW,328,13.0,23.0,23,0.00,,,0.00,meteohub,2013-03-05 20:17:00,
2013-03-05 14:18:00,54.3,18.3,-100.00,NNW,329,14.0,23.0,24,0.00,,,0.00,meteohub,2013-03-05 20:18:00,
2013-03-05 14:19:00,54.3,18.3,-100.00,NW,309,12.0,23.0,24,0.00,,,0.00,meteohub,2013-03-05 20:19:00,
2013-03-05 14:20:00,54.5,17.4,-100.00,NW,324,11.0,23.0,23,0.00,,,0.00,meteohub,2013-03-05 20:20:00,
2013-03-05 14:22:00,54.5,18.5,-100.00,NW,317,18.0,24.0,24,0.00,,,0.00,meteohub,2013-03-05 20:22:00,
2013-03-05 14:23:00,54.5,17.4,-100.00,NNW,338,18.0,24.0,23,0.00,,,0.00,meteohub,2013-03-05 20:23:00,
2013-03-05 14:24:00,54.5,17.4,-100.00,NNW,331,23.0,24.0,23,0.00,,,0.00,meteohub,2013-03-05 20:24:00,
2013-03-05 14:25:00,54.5,17.4,-100.00,NNW,333,20.0,24.0,23,0.00,,,0.00,meteohub,2013-03-05 20:25:00,
2013-03-05 14:27:00,54.5,17.4,-100.00,NW,325,21.0,24.0,23,0.00,,,0.00,meteohub,2013-03-05 20:27:00,
2013-03-05 14:29:00,54.5,17.4,-100.00,NW,326,12.0,24.0,23,0.00,,,0.00,meteohub,2013-03-05 20:29:00,
2013-03-05 14:30:00,54.7,18.5,-100.00,NNW,329,12.0,24.0,24,0.00,,,0.00,meteohub,2013-03-05 20:30:00,
2013-03-05 14:32:00,54.9,17.8,-100.00,NNW,336,19.0,24.0,23,0.00,,,0.00,meteohub,2013-03-05 20:32:00,
2013-03-05 14:34:00,54.9,22.3,-100.00,NW,311,18.0,24.0,28,0.00,,,0.00,meteohub,2013-03-05 20:34:00,
2013-03-05 14:35:00,55.0,19.8,-100.00,NNW,344,22.0,23.0,25,0.00,,,0.00,meteohub,2013-03-05 20:35:00,
2013-03-05 14:38:00,55.2,17.1,-100.00,NNW,344,14.0,23.0,22,0.00,,,0.00,meteohub,2013-03-05 20:38:00,
2013-03-05 14:39:00,55.2,18.1,-100.00,NNW,336,13.0,23.0,23,0.00,,,0.00,meteohub,2013-03-05 20:39:00,
2013-03-05 14:40:00,55.2,17.1,-100.00,NW,314,18.0,23.0,22,0.00,,,0.00,meteohub,2013-03-05 20:40:00,
2013-03-05 14:43:00,55.0,16.9,-100.00,NNW,329,19.0,23.0,22,0.00,,,0.00,meteohub,2013-03-05 20:43:00,
2013-03-05 14:44:00,55.0,18.0,-100.00,NNW,347,12.0,23.0,23,0.00,,,0.00,meteohub,2013-03-05 20:44:00,
2013-03-05 14:45:00,55.0,18.0,-100.00,North,5,20.0,24.0,23,0.00,,,0.00,meteohub,2013-03-05 20:45:00,
2013-03-05 14:48:00,55.2,19.0,-100.00,NW,310,14.0,24.0,24,0.00,,,0.00,meteohub,2013-03-05 20:48:00,
2013-03-05 14:50:00,55.4,18.1,-100.00,North,9,17.0,24.0,23,0.00,,,0.00,meteohub,2013-03-05 20:50:00,
2013-03-05 14:51:00,55.6,19.4,-100.00,NNW,345,20.0,24.0,24,0.00,,,0.00,meteohub,2013-03-05 20:51:00,
2013-03-05 14:54:00,55.8,17.4,-100.00,North,355,17.0,24.0,22,0.00,,,0.00,meteohub,2013-03-05 20:54:00,
2013-03-05 14:55:00,55.8,17.4,-100.00,NNW,342,11.0,24.0,22,0.00,,,0.00,meteohub,2013-03-05 20:55:00,
2013-03-05 14:56:00,55.8,17.4,-100.00,North,355,17.0,24.0,22,0.00,,,0.00,meteohub,2013-03-05 20:56:00,
2013-03-05 14:59:00,55.9,18.7,-100.00,North,5,12.0,24.0,23,0.00,,,0.00,meteohub,2013-03-05 20:59:00,
2013-03-05 15:00:00,56.1,17.8,-100.00,NNW,333,16.0,22.0,22,0.00,,,0.00,meteohub,2013-03-05 21:00:00,
2013-03-05 15:01:00,56.1,18.9,-100.00,NNW,346,12.0,22.0,23,0.00,,,0.00,meteohub,2013-03-05 21:01:00,
2013-03-05 15:04:00,55.9,17.6,-100.00,NNW,343,13.0,22.0,22,0.00,,,0.00,meteohub,2013-03-05 21:04:00,
2013-03-05 15:05:00,55.9,18.7,-100.00,NNW,330,7.0,22.0,23,0.00,,,0.00,meteohub,2013-03-05 21:05:00,
2013-03-05 15:06:00,55.9,18.7,-100.00,NW,317,15.0,22.0,23,0.00,,,0.00,meteohub,2013-03-05 21:06:00,
2013-03-05 15:10:00,55.9,18.7,-100.00,NNW,347,15.0,22.0,23,0.00,,,0.00,meteohub,2013-03-05 21:10:00,
2013-03-05 15:11:00,55.8,16.3,-100.00,NNW,336,11.0,22.0,21,0.00,,,0.00,meteohub,2013-03-05 21:11:00,
2013-03-05 15:12:00,55.8,18.5,-100.00,North,0,11.0,22.0,23,0.00,,,0.00,meteohub,2013-03-05 21:12:00,
2013-03-05 15:15:00,55.8,18.5,-100.00,NNW,337,18.0,22.0,23,0.00,,,0.00,meteohub,2013-03-05 21:15:00,
2013-03-05 15:16:00,55.6,17.2,-100.00,NW,315,13.0,22.0,22,0.00,,,0.00,meteohub,2013-03-05 21:16:00,
2013-03-05 15:17:00,55.6,17.2,-100.00,NNW,331,17.0,22.0,22,0.00,,,0.00,meteohub,2013-03-05 21:17:00,
2013-03-05 15:20:00,55.8,17.4,-100.00,North,349,12.0,23.0,22,0.00,,,0.00,meteohub,2013-03-05 21:20:00,
2013-03-05 15:21:00,55.8,17.4,-100.00,NNW,333,15.0,23.0,22,0.00,,,0.00,meteohub,2013-03-05 21:21:00,
2013-03-05 15:22:00,55.9,18.7,-100.00,NNW,339,10.0,23.0,23,0.00,,,0.00,meteohub,2013-03-05 21:22:00,
2013-03-05 15:25:00,56.5,18.1,-100.00,North,350,19.0,23.0,22,0.00,,,0.00,meteohub,2013-03-05 21:25:00,
2013-03-05 15:26:00,56.5,18.1,-100.00,North,0,11.0,23.0,22,0.00,,,0.00,meteohub,2013-03-05 21:26:00,
2013-03-05 15:27:00,56.5,19.0,-100.00,North,0,13.0,23.0,23,0.00,,,0.00,meteohub,2013-03-05 21:27:00,
2013-03-05 15:31:00,56.5,15.8,-100.00,North,351,20.0,23.0,20,0.00,,,0.00,meteohub,2013-03-05 21:31:00,
2013-03-05 15:32:00,56.3,16.9,-100.00,North,11,20.0,23.0,21,0.00,,,0.00,meteohub,2013-03-05 21:32:00,
2013-03-05 15:33:00,56.1,16.7,-100.00,North,350,16.0,23.0,21,0.00,,,0.00,meteohub,2013-03-05 21:33:00,
2013-03-05 15:36:00,55.9,16.5,-100.00,NNW,345,10.0,29.0,21,0.00,,,0.00,meteohub,2013-03-05 21:36:00,
2013-03-05 15:37:00,55.9,17.6,-100.00,North,5,8.0,29.0,22,0.00,,,0.00,meteohub,2013-03-05 21:37:00,
2013-03-05 15:38:00,55.9,17.6,-100.00,NNW,342,15.0,29.0,22,0.00,,,0.00,meteohub,2013-03-05 21:38:00,
2013-03-05 15:41:00,56.1,17.8,-100.00,North,0,12.0,29.0,22,0.00,,,0.00,meteohub,2013-03-05 21:41:00,
2013-03-05 15:42:00,56.1,18.9,-100.00,NNW,329,13.0,29.0,23,0.00,,,0.00,meteohub,2013-03-05 21:42:00,
2013-03-05 15:43:00,56.3,16.9,-100.00,North,350,14.0,29.0,21,0.00,,,0.00,meteohub,2013-03-05 21:43:00,
2013-03-05 15:46:00,56.1,16.7,-100.00,NNW,338,10.0,26.0,21,0.00,,,0.00,meteohub,2013-03-05 21:46:00,
2013-03-05 15:47:00,56.1,16.7,-100.00,NNW,333,9.0,26.0,21,0.00,,,0.00,meteohub,2013-03-05 21:47:00,
2013-03-05 15:49:00,55.9,16.5,-100.00,NNW,346,10.0,26.0,21,0.00,,,0.00,meteohub,2013-03-05 21:49:00,
2013-03-05 15:52:00,56.1,18.9,-100.00,NNW,329,12.0,26.0,23,0.00,,,0.00,meteohub,2013-03-05 21:52:00,
2013-03-05 15:53:00,56.3,16.9,-100.00,NNW,336,17.0,26.0,21,0.00,,,0.00,meteohub,2013-03-05 21:53:00,
2013-03-05 15:54:00,56.3,18.0,-100.00,NNW,329,16.0,26.0,22,0.00,,,0.00,meteohub,2013-03-05 21:54:00,
2013-03-05 15:57:00,56.5,15.8,-100.00,NNW,333,9.0,26.0,20,0.00,,,0.00,meteohub,2013-03-05 21:57:00,
2013-03-05 15:58:00,56.5,18.1,-100.00,NNW,340,13.0,26.0,22,0.00,,,0.00,meteohub,2013-03-05 21:58:00,
2013-03-05 15:59:00,56.5,18.1,-100.00,NW,317,12.0,26.0,22,0.00,,,0.00,meteohub,2013-03-05 21:59:00,
2013-03-05 16:02:00,56.3,16.9,-100.00,NNW,335,15.0,23.0,21,0.00,,,0.00,meteohub,2013-03-05 22:02:00,
2013-03-05 16:03:00,56.1,17.8,-100.00,NNW,332,14.0,23.0,22,0.00,,,0.00,meteohub,2013-03-05 22:03:00,
2013-03-05 16:04:00,56.1,17.8,-100.00,NNW,340,15.0,23.0,22,0.00,,,0.00,meteohub,2013-03-05 22:04:00,
2013-03-05 16:07:00,55.9,16.5,-100.00,NW,318,11.0,22.0,21,0.00,,,0.00,meteohub,2013-03-05 22:07:00,
2013-03-05 16:08:00,55.9,16.5,-100.00,NNW,329,10.0,22.0,21,0.00,,,0.00,meteohub,2013-03-05 22:08:00,
2013-03-05 16:09:00,55.9,17.6,-100.00,NNW,333,10.0,22.0,22,0.00,,,0.00,meteohub,2013-03-05 22:09:00,
2013-03-05 16:13:00,55.9,17.6,-100.00,NW,323,6.0,22.0,22,0.00,,,0.00,meteohub,2013-03-05 22:13:00,
2013-03-05 16:14:00,56.1,18.9,-100.00,NW,322,15.0,22.0,23,0.00,,,0.00,meteohub,2013-03-05 22:14:00,
2013-03-05 16:15:00,56.1,17.8,-100.00,NNW,334,9.0,22.0,22,0.00,,,0.00,meteohub,2013-03-05 22:15:00,
2013-03-05 16:17:00,56.3,19.0,-100.00,NNW,344,10.0,22.0,23,0.00,,,0.00,meteohub,2013-03-05 22:17:00,
2013-03-05 16:19:00,56.5,18.1,-100.00,NNW,346,20.0,22.0,22,0.00,,,0.00,meteohub,2013-03-05 22:19:00,
2013-03-05 16:20:00,56.5,18.1,-100.00,North,349,12.0,22.0,22,0.00,,,0.00,meteohub,2013-03-05 22:20:00,
2013-03-05 16:22:00,56.5,18.1,-100.00,NNW,338,10.0,22.0,22,0.00,,,0.00,meteohub,2013-03-05 22:22:00,
2013-03-05 16:24:00,56.5,18.1,-100.00,North,9,15.0,22.0,22,0.00,,,0.00,meteohub,2013-03-05 22:24:00,
2013-03-05 16:25:00,56.5,17.1,-100.00,North,355,17.0,22.0,21,0.00,,,0.00,meteohub,2013-03-05 22:25:00,
2013-03-05 16:28:00,56.3,18.0,-100.00,NNW,348,18.0,22.0,22,0.00,,,0.00,meteohub,2013-03-05 22:28:00,
2013-03-05 16:29:00,56.3,16.9,-100.00,North,0,13.0,22.0,21,0.00,,,0.00,meteohub,2013-03-05 22:29:00,
2013-03-05 16:30:00,56.1,16.7,-100.00,North,5,12.0,23.0,21,0.00,,,0.00,meteohub,2013-03-05 22:30:00,
2013-03-05 16:33:00,55.9,16.5,-100.00,North,9,14.0,23.0,21,0.00,,,0.00,meteohub,2013-03-05 22:33:00,
2013-03-05 16:34:00,55.9,16.5,-100.00,NNW,339,15.0,23.0,21,0.00,,,0.00,meteohub,2013-03-05 22:34:00,
2013-03-05 16:36:00,55.9,16.5,-100.00,NNW,333,10.0,23.0,21,0.00,,,0.00,meteohub,2013-03-05 22:36:00,
2013-03-05 16:38:00,55.9,17.6,-100.00,NW,318,11.0,23.0,22,0.00,,,0.00,meteohub,2013-03-05 22:38:00,
2013-03-05 16:39:00,55.8,16.3,-100.00,NW,319,14.0,23.0,21,0.00,,,0.00,meteohub,2013-03-05 22:39:00,
2013-03-05 16:41:00,55.8,16.3,-100.00,NNW,333,16.0,23.0,21,0.00,,,0.00,meteohub,2013-03-05 22:41:00,
2013-03-05 16:42:00,55.8,16.3,-100.00,NNW,346,8.0,23.0,21,0.00,,,0.00,meteohub,2013-03-05 22:42:00,
2013-03-05 16:44:00,55.8,17.4,-100.00,NNW,338,10.0,23.0,22,0.00,,,0.00,meteohub,2013-03-05 22:44:00,
2013-03-05 16:46:00,55.8,18.5,-100.00,NNW,338,11.0,23.0,23,0.00,,,0.00,meteohub,2013-03-05 22:46:00,
2013-03-05 16:48:00,55.8,18.5,-100.00,NNW,340,14.0,23.0,23,0.00,,,0.00,meteohub,2013-03-05 22:48:00,
2013-03-05 16:50:00,55.8,17.4,-100.00,NNW,338,15.0,20.0,22,0.00,,,0.00,meteohub,2013-03-05 22:50:00,
2013-03-05 16:52:00,55.8,16.3,-100.00,North,355,10.0,20.0,21,0.00,,,0.00,meteohub,2013-03-05 22:52:00,
2013-03-05 16:53:00,55.8,16.3,-100.00,North,5,13.0,20.0,21,0.00,,,0.00,meteohub,2013-03-05 22:53:00,
2013-03-05 16:54:00,55.8,16.3,-100.00,North,5,14.0,20.0,21,0.00,,,0.00,meteohub,2013-03-05 22:54:00,
2013-03-05 16:55:00,55.8,18.5,-100.00,North,355,12.0,20.0,23,0.00,,,0.00,meteohub,2013-03-05 22:55:00,
2013-03-05 16:57:00,55.6,16.2,-100.00,North,5,14.0,20.0,21,0.00,,,0.00,meteohub,2013-03-05 22:57:00,
2013-03-05 16:58:00,55.6,17.2,-100.00,NNW,336,16.0,20.0,22,0.00,,,0.00,meteohub,2013-03-05 22:58:00,
2013-03-05 16:59:00,55.6,16.2,-100.00,North,355,15.0,20.0,21,0.00,,,0.00,meteohub,2013-03-05 22:59:00,
2013-03-05 17:00:00,55.6,16.2,-100.00,NNW,344,10.0,22.0,21,0.00,,,0.00,meteohub,2013-03-05 23:00:00,
2013-03-05 17:02:00,55.6,17.2,-100.00,North,355,14.0,22.0,22,0.00,,,0.00,meteohub,2013-03-05 23:02:00,
2013-03-05 17:04:00,55.6,17.2,-100.00,North,355,10.0,22.0,22,0.00,,,0.00,meteohub,2013-03-05 23:04:00,
2013-03-05 17:05:00,55.6,17.2,-100.00,North,5,12.0,22.0,22,0.00,,,0.00,meteohub,2013-03-05 23:05:00,
2013-03-05 17:07:00,55.4,17.2,-100.00,North,9,20.0,22.0,22,0.00,,,0.00,meteohub,2013-03-05 23:07:00,
2013-03-05 17:09:00,55.2,17.1,-100.00,North,355,14.0,22.0,22,0.00,,,0.00,meteohub,2013-03-05 23:09:00,
2013-03-05 17:10:00,55.2,17.1,-100.00,NNW,338,18.0,21.0,22,0.00,,,0.00,meteohub,2013-03-05 23:10:00,
2013-03-05 17:11:00,55.2,17.1,-100.00,NNW,346,11.0,21.0,22,0.00,,,0.00,meteohub,2013-03-05 23:11:00,
2013-03-05 17:12:00,55.0,16.9,-100.00,NNW,339,6.0,21.0,22,0.00,,,0.00,meteohub,2013-03-05 23:12:00,
2013-03-05 17:15:00,55.0,18.0,-100.00,North,355,9.0,21.0,23,0.00,,,0.00,meteohub,2013-03-05 23:15:00,
2013-03-05 17:16:00,55.0,18.0,-100.00,NNW,334,12.0,23.0,23,0.00,,,0.00,meteohub,2013-03-05 23:16:00,
2013-03-05 17:18:00,55.0,18.0,-100.00,North,355,12.0,23.0,23,0.00,,,0.00,meteohub,2013-03-05 23:18:00,
2013-03-05 17:20:00,55.0,16.9,-100.00,NNW,341,17.0,23.0,22,0.00,,,0.00,meteohub,2013-03-05 23:20:00,
2013-03-05 17:21:00,54.9,16.7,-100.00,NNW,345,15.0,23.0,22,0.00,,,0.00,meteohub,2013-03-05 23:21:00,
2013-03-05 17:23:00,54.9,16.7,-100.00,North,5,7.0,23.0,22,0.00,,,0.00,meteohub,2013-03-05 23:23:00,
2013-03-05 17:25:00,54.7,16.5,-100.00,NNW,342,7.0,20.0,22,0.00,,,0.00,meteohub,2013-03-05 23:25:00,
2013-03-05 17:26:00,54.7,17.6,-100.00,NNW,340,10.0,20.0,23,0.00,,,0.00,meteohub,2013-03-05 23:26:00,
2013-03-05 17:28:00,54.5,17.4,-100.00,North,350,10.0,20.0,23,0.00,,,0.00,meteohub,2013-03-05 23:28:00,
2013-03-05 17:31:00,54.3,17.2,-100.00,North,355,12.0,19.0,23,0.00,,,0.00,meteohub,2013-03-05 23:31:00,
2013-03-05 17:33:00,54.1,17.1,-100.00,North,350,15.0,19.0,23,0.00,,,0.00,meteohub,2013-03-05 23:33:00,
2013-03-05 17:36:00,54.1,17.1,-100.00,North,355,10.0,20.0,23,0.00,,,0.00,meteohub,2013-03-05 23:36:00,
2013-03-05 17:37:00,54.1,17.1,-100.00,North,355,10.0,20.0,23,0.00,,,0.00,meteohub,2013-03-05 23:37:00,
2013-03-05 17:38:00,54.0,16.0,-100.00,North,355,12.0,20.0,22,0.00,,,0.00,meteohub,2013-03-05 23:38:00,
2013-03-05 17:42:00,53.8,16.9,-100.00,NNW,348,18.0,20.0,23,0.00,,,0.00,meteohub,2013-03-05 23:42:00,
2013-03-05 17:43:00,53.6,16.7,-100.00,NNW,347,12.0,20.0,23,0.00,,,0.00,meteohub,2013-03-05 23:43:00,
2013-03-05 17:47:00,53.4,16.5,-100.00,NNW,346,5.0,20.0,23,0.00,,,0.00,meteohub,2013-03-05 23:47:00,
2013-03-05 17:48:00,53.4,17.6,-100.00,NNW,346,8.0,20.0,24,0.00,,,0.00,meteohub,2013-03-05 23:48:00,
2013-03-05 17:52:00,53.2,17.4,-100.00,North,350,12.0,20.0,24,0.00,,,0.00,meteohub,2013-03-05 23:52:00,
2013-03-05 17:53:00,53.2,17.4,-100.00,NNW,330,10.0,20.0,24,0.00,,,0.00,meteohub,2013-03-05 23:53:00,
2013-03-05 17:54:00,53.2,17.4,-100.00,NNW,342,9.0,20.0,24,0.00,,,0.00,meteohub,2013-03-05 23:54:00,
2013-03-05 17:58:00,53.2,17.4,-100.00,NNW,336,10.0,19.0,24,0.00,,,0.00,meteohub,2013-03-05 23:58:00,
2013-03-05 17:59:00,53.2,17.4,-100.00,NNW,333,17.0,19.0,24,0.00,,,0.00,meteohub,2013-03-05 23:59:00,
2013-03-05 18:03:00,53.1,17.2,-100.00,NNW,342,6.0,18.0,24,0.00,,,0.00,meteohub,2013-03-06 00:03:00,
2013-03-05 18:04:00,53.1,17.2,-100.00,NNW,342,11.0,18.0,24,0.00,,,0.00,meteohub,2013-03-06 00:04:00,
2013-03-05 18:08:00,52.9,18.0,-100.00,NNW,340,6.0,19.0,25,0.00,,,0.00,meteohub,2013-03-06 00:08:00,
2013-03-05 18:09:00,52.9,18.9,-100.00,NNW,341,9.0,19.0,26,0.00,,,0.00,meteohub,2013-03-06 00:09:00,
2013-03-05 18:10:00,52.9,18.9,-100.00,NNW,340,6.0,19.0,26,0.00,,,0.00,meteohub,2013-03-06 00:10:00,
2013-03-05 18:13:00,52.5,18.7,-100.00,NNW,342,11.0,19.0,26,0.00,,,0.00,meteohub,2013-03-06 00:13:00,
2013-03-05 18:14:00,52.5,17.8,-100.00,NNW,340,10.0,19.0,25,0.00,,,0.00,meteohub,2013-03-06 00:14:00,
2013-03-05 18:15:00,52.3,16.5,-100.00,NNW,340,12.0,18.0,24,0.00,,,0.00,meteohub,2013-03-06 00:15:00,
2013-03-05 18:19:00,52.2,16.5,-100.00,NW,325,11.0,18.0,24,0.00,,,0.00,meteohub,2013-03-06 00:19:00,
2013-03-05 18:20:00,52.2,17.4,-100.00,NNW,333,12.0,18.0,25,0.00,,,0.00,meteohub,2013-03-06 00:20:00,
2013-03-05 18:24:00,52.2,17.4,-100.00,NNW,336,14.0,18.0,25,0.00,,,0.00,meteohub,2013-03-06 00:24:00,
2013-03-05 18:25:00,52.2,17.4,-100.00,NNW,331,18.0,18.0,25,0.00,,,0.00,meteohub,2013-03-06 00:25:00,
2013-03-05 18:29:00,52.0,16.3,-100.00,North,350,8.0,19.0,24,0.00,,,0.00,meteohub,2013-03-06 00:29:00,
2013-03-05 18:30:00,52.0,16.3,-100.00,NNW,348,13.0,19.0,24,0.00,,,0.00,meteohub,2013-03-06 00:30:00,
2013-03-05 18:34:00,51.6,16.9,-100.00,NNW,346,8.0,19.0,25,0.00,,,0.00,meteohub,2013-03-06 00:34:00,
2013-03-05 18:35:00,51.6,16.9,-100.00,North,355,11.0,19.0,25,0.00,,,0.00,meteohub,2013-03-06 00:35:00,
2013-03-05 18:36:00,51.6,16.9,-100.00,NNW,346,14.0,19.0,25,0.00,,,0.00,meteohub,2013-03-06 00:36:00,
2013-03-05 18:39:00,51.4,17.6,-100.00,NNW,346,7.0,19.0,26,0.00,,,0.00,meteohub,2013-03-06 00:39:00,
2013-03-05 18:40:00,51.3,17.6,-100.00,NNW,346,5.0,19.0,26,0.00,,,0.00,meteohub,2013-03-06 00:40:00,
2013-03-05 18:41:00,51.3,17.6,-100.00,NNW,346,5.0,17.0,26,0.00,,,0.00,meteohub,2013-03-06 00:41:00,
2013-03-05 18:45:00,51.1,18.3,-100.00,NNW,347,5.0,17.0,27,0.00,,,0.00,meteohub,2013-03-06 00:45:00,
2013-03-05 18:46:00,50.7,18.0,-100.00,North,349,7.0,16.0,27,0.00,,,0.00,meteohub,2013-03-06 00:46:00,
2013-03-05 18:50:00,50.5,18.7,-100.00,NNW,343,5.0,16.0,28,0.00,,,0.00,meteohub,2013-03-06 00:50:00,
2013-03-05 18:51:00,50.5,18.7,-100.00,NNW,343,10.0,16.0,28,0.00,,,0.00,meteohub,2013-03-06 00:51:00,
2013-03-05 18:56:00,50.2,18.3,-100.00,NNW,335,13.0,13.0,28,0.00,,,0.00,meteohub,2013-03-06 00:56:00,
2013-03-05 19:01:00,50.2,18.3,-100.00,NNW,346,5.0,13.0,28,0.00,,,0.00,meteohub,2013-03-06 01:01:00,
2013-03-05 19:02:00,50.2,18.3,-100.00,NNW,338,9.0,13.0,28,0.00,,,0.00,meteohub,2013-03-06 01:02:00,
2013-03-05 19:06:00,49.8,17.2,-100.00,NNW,344,10.0,13.0,27,0.00,,,0.00,meteohub,2013-03-06 01:06:00,
2013-03-05 19:07:00,49.8,17.2,-100.00,NNW,343,5.0,13.0,27,0.00,,,0.00,meteohub,2013-03-06 01:07:00,
2013-03-05 19:11:00,49.8,17.2,-100.00,North,350,7.0,13.0,27,0.00,,,0.00,meteohub,2013-03-06 01:11:00,
2013-03-05 19:12:00,49.8,17.2,-100.00,North,350,12.0,13.0,27,0.00,,,0.00,meteohub,2013-03-06 01:12:00,
2013-03-05 19:14:00,49.8,17.2,-100.00,North,0,11.0,13.0,27,0.00,,,0.00,meteohub,2013-03-06 01:14:00,
2013-03-05 19:17:00,49.8,17.2,-100.00,NNW,339,6.0,14.0,27,0.00,,,0.00,meteohub,2013-03-06 01:17:00,
2013-03-05 19:19:00,49.8,18.0,-100.00,NNW,340,6.0,14.0,28,0.00,,,0.00,meteohub,2013-03-06 01:19:00,
2013-03-05 19:22:00,49.6,17.8,-100.00,NNW,340,8.0,14.0,28,0.00,,,0.00,meteohub,2013-03-06 01:22:00,
2013-03-05 19:23:00,49.5,17.8,-100.00,NNW,341,6.0,14.0,28,0.00,,,0.00,meteohub,2013-03-06 01:23:00,
2013-03-05 19:24:00,49.5,17.8,-100.00,NNW,341,5.0,14.0,28,0.00,,,0.00,meteohub,2013-03-06 01:24:00,
2013-03-05 19:27:00,49.5,16.9,-100.00,NNW,342,5.0,14.0,27,0.00,,,0.00,meteohub,2013-03-06 01:27:00,
2013-03-05 19:28:00,49.3,17.6,-100.00,NNW,342,5.0,14.0,28,0.00,,,0.00,meteohub,2013-03-06 01:28:00,
2013-03-05 19:29:00,49.3,17.6,-100.00,NNW,342,6.0,14.0,28,0.00,,,0.00,meteohub,2013-03-06 01:29:00,
2013-03-05 19:33:00,48.9,17.2,-100.00,NNW,342,5.0,10.0,28,0.00,,,0.00,meteohub,2013-03-06 01:33:00,
2013-03-05 19:34:00,48.7,17.1,-100.00,NNW,342,4.0,10.0,28,0.00,,,0.00,meteohub,2013-03-06 01:34:00,
2013-03-05 19:38:00,48.6,17.8,-100.00,NNW,342,5.0,10.0,29,0.00,,,0.00,meteohub,2013-03-06 01:38:00,
2013-03-05 19:39:00,48.6,17.8,-100.00,NNW,342,2.0,10.0,29,0.00,,,0.00,meteohub,2013-03-06 01:39:00,
2013-03-05 19:43:00,48.2,17.4,-100.00,NNW,342,4.0,9.0,29,0.00,,,0.00,meteohub,2013-03-06 01:43:00,
2013-03-05 19:44:00,48.2,17.4,-100.00,NNW,342,5.0,9.0,29,0.00,,,0.00,meteohub,2013-03-06 01:44:00,
2013-03-05 19:45:00,48.2,17.4,-100.00,NNW,342,4.0,9.0,29,0.00,,,0.00,meteohub,2013-03-06 01:45:00,
2013-03-05 19:48:00,48.2,17.4,-100.00,NNW,342,0.0,7.0,29,0.00,,,0.00,meteohub,2013-03-06 01:48:00,
2013-03-05 19:49:00,48.2,17.4,-100.00,NNW,342,3.0,7.0,29,0.00,,,0.00,meteohub,2013-03-06 01:49:00,
2013-03-05 19:50:00,48.2,17.4,-100.00,NNW,342,3.0,7.0,29,0.00,,,0.00,meteohub,2013-03-06 01:50:00,
2013-03-05 19:53:00,48.4,17.6,-100.00,NNW,342,3.0,6.0,29,0.00,,,0.00,meteohub,2013-03-06 01:53:00,
2013-03-05 19:54:00,48.4,17.6,-100.00,NNW,342,5.0,6.0,29,0.00,,,0.00,meteohub,2013-03-06 01:54:00,
2013-03-05 19:55:00,48.4,17.6,-100.00,NNW,342,6.0,6.0,29,0.00,,,0.00,meteohub,2013-03-06 01:55:00,
2013-03-05 19:58:00,48.6,17.8,-100.00,NNW,341,4.0,6.0,29,0.00,,,0.00,meteohub,2013-03-06 01:58:00,
2013-03-05 19:59:00,48.6,17.8,-100.00,NNW,341,4.0,6.0,29,0.00,,,0.00,meteohub,2013-03-06 01:59:00,
2013-03-05 20:00:00,48.6,17.8,-100.00,NNW,341,5.0,6.0,29,0.00,,,0.00,meteohub,2013-03-06 02:00:00,
2013-03-05 20:04:00,48.6,18.5,-100.00,NNW,341,4.0,6.0,30,0.00,,,0.00,meteohub,2013-03-06 02:04:00,
2013-03-05 20:06:00,48.4,18.3,-100.00,NNW,341,2.0,8.0,30,0.00,,,0.00,meteohub,2013-03-06 02:06:00,
2013-03-05 20:09:00,48.2,19.8,-100.00,NNW,341,3.0,8.0,32,0.00,,,0.00,meteohub,2013-03-06 02:09:00,
2013-03-05 20:10:00,48.0,20.3,-100.00,NNW,341,5.0,8.0,33,0.00,,,0.00,meteohub,2013-03-06 02:10:00,
2013-03-05 20:11:00,48.0,20.3,-100.00,NNW,340,5.0,8.0,33,0.00,,,0.00,meteohub,2013-03-06 02:11:00,
2013-03-05 20:14:00,47.8,20.8,-100.00,NNW,340,5.0,8.0,34,0.00,,,0.00,meteohub,2013-03-06 02:14:00,
2013-03-05 20:15:00,47.8,20.8,-100.00,NNW,340,4.0,8.0,34,0.00,,,0.00,meteohub,2013-03-06 02:15:00,
2013-03-05 20:16:00,47.8,20.8,-100.00,NNW,333,6.0,9.0,34,0.00,,,0.00,meteohub,2013-03-06 02:16:00,
2013-03-05 20:17:00,47.8,21.6,-100.00,NNW,333,7.0,9.0,35,0.00,,,0.00,meteohub,2013-03-06 02:17:00,
2013-03-05 20:19:00,47.7,21.4,-100.00,NNW,333,5.0,9.0,35,0.00,,,0.00,meteohub,2013-03-06 02:19:00,
2013-03-05 20:20:00,47.7,22.1,-100.00,NNW,333,5.0,9.0,36,0.00,,,0.00,meteohub,2013-03-06 02:20:00,
2013-03-05 20:22:00,47.7,21.4,-100.00,NNW,334,6.0,11.0,35,0.00,,,0.00,meteohub,2013-03-06 02:22:00,
2013-03-05 20:23:00,47.5,21.9,-100.00,NNW,334,5.0,11.0,36,0.00,,,0.00,meteohub,2013-03-06 02:23:00,
2013-03-05 20:25:00,47.3,21.7,-100.00,NNW,335,5.0,11.0,36,0.00,,,0.00,meteohub,2013-03-06 02:25:00,
2013-03-05 20:27:00,47.1,21.6,-100.00,NNW,335,4.0,11.0,36,0.00,,,0.00,meteohub,2013-03-06 02:27:00,
2013-03-05 20:28:00,46.9,21.4,-100.00,NNW,335,3.0,11.0,36,0.00,,,0.00,meteohub,2013-03-06 02:28:00,
2013-03-05 20:30:00,46.9,21.4,-100.00,NNW,334,7.0,11.0,36,0.00,,,0.00,meteohub,2013-03-06 02:30:00,
2013-03-05 20:31:00,46.9,21.4,-100.00,NNW,334,7.0,11.0,36,0.00,,,0.00,meteohub,2013-03-06 02:31:00,
2013-03-05 20:32:00,46.8,21.2,-100.00,NNW,334,4.0,11.0,36,0.00,,,0.00,meteohub,2013-03-06 02:32:00,
2013-03-05 20:33:00,46.8,21.2,-100.00,NNW,334,4.0,11.0,36,0.00,,,0.00,meteohub,2013-03-06 02:33:00,
2013-03-05 20:36:00,46.8,21.2,-100.00,NNW,334,5.0,10.0,36,0.00,,,0.00,meteohub,2013-03-06 02:36:00,
2013-03-05 20:37:00,46.8,21.2,-100.00,NNW,334,5.0,10.0,36,0.00,,,0.00,meteohub,2013-03-06 02:37:00,
2013-03-05 20:38:00,46.8,20.5,-100.00,NNW,335,4.0,10.0,35,0.00,,,0.00,meteohub,2013-03-06 02:38:00,
2013-03-05 20:42:00,46.8,20.5,-100.00,NNW,343,7.0,10.0,35,0.00,,,0.00,meteohub,2013-03-06 02:42:00,
2013-03-05 20:43:00,46.8,20.5,-100.00,NNW,344,5.0,10.0,35,0.00,,,0.00,meteohub,2013-03-06 02:43:00,
2013-03-05 20:44:00,46.8,19.9,-100.00,NNW,344,5.0,10.0,34,0.00,,,0.00,meteohub,2013-03-06 02:44:00,
2013-03-05 20:47:00,46.6,20.3,-100.00,NNW,338,6.0,10.0,35,0.00,,,0.00,meteohub,2013-03-06 02:47:00,
2013-03-05 20:48:00,46.4,20.3,-100.00,NNW,340,5.0,10.0,35,0.00,,,0.00,meteohub,2013-03-06 02:48:00,
2013-03-05 20:49:00,46.4,20.3,-100.00,NNW,341,6.0,10.0,35,0.00,,,0.00,meteohub,2013-03-06 02:49:00,
2013-03-05 20:52:00,46.2,19.4,-100.00,NNW,341,6.0,10.0,34,0.00,,,0.00,meteohub,2013-03-06 02:52:00,
2013-03-05 20:53:00,46.2,20.1,-100.00,NNW,341,8.0,10.0,35,0.00,,,0.00,meteohub,2013-03-06 02:53:00,
2013-03-05 20:54:00,46.2,20.1,-100.00,NNW,342,5.0,10.0,35,0.00,,,0.00,meteohub,2013-03-06 02:54:00,
2013-03-05 20:57:00,46.2,20.1,-100.00,NNW,342,5.0,11.0,35,0.00,,,0.00,meteohub,2013-03-06 02:57:00,
2013-03-05 20:58:00,46.0,19.9,-100.00,NNW,342,5.0,11.0,35,0.00,,,0.00,meteohub,2013-03-06 02:58:00,
2013-03-05 20:59:00,46.0,19.9,-100.00,NNW,342,6.0,11.0,35,0.00,,,0.00,meteohub,2013-03-06 02:59:00,
2013-03-05 21:02:00,46.0,19.9,-100.00,NNW,343,5.0,11.0,35,0.00,,,0.00,meteohub,2013-03-06 03:02:00,
2013-03-05 21:04:00,46.0,20.5,-100.00,NNW,344,9.0,11.0,36,0.00,,,0.00,meteohub,2013-03-06 03:04:00,
2013-03-05 21:05:00,46.0,20.5,-100.00,NNW,344,4.0,11.0,36,0.00,,,0.00,meteohub,2013-03-06 03:05:00,
2013-03-05 21:07:00,46.0,21.2,-100.00,NNW,346,4.0,11.0,37,0.00,,,0.00,meteohub,2013-03-06 03:07:00,
2013-03-05 21:09:00,45.9,20.5,-100.00,NNW,346,7.0,11.0,36,0.00,,,0.00,meteohub,2013-03-06 03:09:00,
2013-03-05 21:10:00,45.9,20.5,-100.00,NNW,347,7.0,11.0,36,0.00,,,0.00,meteohub,2013-03-06 03:10:00,
2013-03-05 21:13:00,45.9,21.0,-100.00,North,355,7.0,10.0,37,0.00,,,0.00,meteohub,2013-03-06 03:13:00,
2013-03-05 21:14:00,45.9,21.0,-100.00,North,355,6.0,10.0,37,0.00,,,0.00,meteohub,2013-03-06 03:14:00,
2013-03-05 21:15:00,45.9,21.0,-100.00,North,355,4.0,10.0,37,0.00,,,0.00,meteohub,2013-03-06 03:15:00,
2013-03-05 21:18:00,45.9,21.0,-100.00,North,355,4.0,11.0,37,0.00,,,0.00,meteohub,2013-03-06 03:18:00,
2013-03-05 21:19:00,45.7,20.8,-100.00,North,355,7.0,11.0,37,0.00,,,0.00,meteohub,2013-03-06 03:19:00,
2013-03-05 21:20:00,45.7,20.8,-100.00,North,355,5.0,11.0,37,0.00,,,0.00,meteohub,2013-03-06 03:20:00,
2013-03-05 21:23:00,45.5,20.7,-100.00,North,355,5.0,11.0,37,0.00,,,0.00,meteohub,2013-03-06 03:23:00,
2013-03-05 21:24:00,45.5,21.4,-100.00,North,355,4.0,11.0,38,0.00,,,0.00,meteohub,2013-03-06 03:24:00,
2013-03-05 21:25:00,45.3,21.2,-100.00,North,355,6.0,10.0,38,0.00,,,0.00,meteohub,2013-03-06 03:25:00,
2013-03-05 21:28:00,45.1,20.5,-100.00,North,355,5.0,10.0,37,0.00,,,0.00,meteohub,2013-03-06 03:28:00,
2013-03-05 21:29:00,45.1,20.5,-100.00,North,355,5.0,10.0,37,0.00,,,0.00,meteohub,2013-03-06 03:29:00,
2013-03-05 21:30:00,45.1,20.5,-100.00,North,355,7.0,9.0,37,0.00,,,0.00,meteohub,2013-03-06 03:30:00,
2013-03-05 21:34:00,45.1,20.5,-100.00,North,355,4.0,9.0,37,0.00,,,0.00,meteohub,2013-03-06 03:34:00,
2013-03-05 21:35:00,45.0,20.8,-100.00,North,355,5.0,9.0,38,0.00,,,0.00,meteohub,2013-03-06 03:35:00,
2013-03-05 21:36:00,45.0,20.8,-100.00,North,355,3.0,9.0,38,0.00,,,0.00,meteohub,2013-03-06 03:36:00,
2013-03-05 21:39:00,44.6,20.5,-100.00,North,355,4.0,9.0,38,0.00,,,0.00,meteohub,2013-03-06 03:39:00,
2013-03-05 21:40:00,44.6,21.2,-100.00,North,355,4.0,9.0,39,0.00,,,0.00,meteohub,2013-03-06 03:40:00,
2013-03-05 21:41:00,44.6,21.2,-100.00,North,355,5.0,9.0,39,0.00,,,0.00,meteohub,2013-03-06 03:41:00,
2013-03-05 21:44:00,44.2,20.8,-100.00,North,355,4.0,9.0,39,0.00,,,0.00,meteohub,2013-03-06 03:44:00,
2013-03-05 21:45:00,44.2,20.8,-100.00,North,355,4.0,9.0,39,0.00,,,0.00,meteohub,2013-03-06 03:45:00,
2013-03-05 21:46:00,44.2,20.8,-100.00,North,355,5.0,7.0,39,0.00,,,0.00,meteohub,2013-03-06 03:46:00,
2013-03-05 21:49:00,44.2,20.8,-100.00,North,355,4.0,7.0,39,0.00,,,0.00,meteohub,2013-03-06 03:49:00,
2013-03-05 21:50:00,44.2,20.8,-100.00,North,355,3.0,7.0,39,0.00,,,0.00,meteohub,2013-03-06 03:50:00,
2013-03-05 21:51:00,44.1,20.7,-100.00,North,355,4.0,7.0,39,0.00,,,0.00,meteohub,2013-03-06 03:51:00,
2013-03-05 21:54:00,44.1,20.7,-100.00,North,355,3.0,7.0,39,0.00,,,0.00,meteohub,2013-03-06 03:54:00,
2013-03-05 21:55:00,43.9,20.5,-100.00,North,355,5.0,7.0,39,0.00,,,0.00,meteohub,2013-03-06 03:55:00,
2013-03-05 21:57:00,43.9,20.5,-100.00,North,355,3.0,7.0,39,0.00,,,0.00,meteohub,2013-03-06 03:57:00,
2013-03-05 22:00:00,43.9,21.2,-100.00,North,355,5.0,7.0,40,0.00,,,0.00,meteohub,2013-03-06 04:00:00,
2013-03-05 22:02:00,43.5,20.8,-100.00,North,355,5.0,7.0,40,0.00,,,0.00,meteohub,2013-03-06 04:02:00,
2013-03-05 22:05:00,43.5,20.8,-100.00,North,355,2.0,7.0,40,0.00,,,0.00,meteohub,2013-03-06 04:05:00,
2013-03-05 22:07:00,43.3,21.2,-100.00,North,355,3.0,7.0,41,0.00,,,0.00,meteohub,2013-03-06 04:07:00,
2013-03-05 22:08:00,43.3,21.2,-100.00,North,355,4.0,7.0,41,0.00,,,0.00,meteohub,2013-03-06 04:08:00,
2013-03-05 22:10:00,43.2,21.0,-100.00,North,355,5.0,9.0,41,0.00,,,0.00,meteohub,2013-03-06 04:10:00,
2013-03-05 22:11:00,43.2,21.0,-100.00,North,355,6.0,9.0,41,0.00,,,0.00,meteohub,2013-03-06 04:11:00,
2013-03-05 22:12:00,43.2,21.0,-100.00,North,355,4.0,9.0,41,0.00,,,0.00,meteohub,2013-03-06 04:12:00,
2013-03-05 22:13:00,43.2,21.0,-100.00,North,355,4.0,9.0,41,0.00,,,0.00,meteohub,2013-03-06 04:13:00,
2013-03-05 22:15:00,43.2,21.0,-100.00,North,355,4.0,9.0,41,0.00,,,0.00,meteohub,2013-03-06 04:15:00,
2013-03-05 22:16:00,43.2,21.0,-100.00,North,355,3.0,9.0,41,0.00,,,0.00,meteohub,2013-03-06 04:16:00,
2013-03-05 22:17:00,43.2,21.6,-100.00,North,355,3.0,9.0,42,0.00,,,0.00,meteohub,2013-03-06 04:17:00,
2013-03-05 22:18:00,43.2,21.6,-100.00,North,355,4.0,9.0,42,0.00,,,0.00,meteohub,2013-03-06 04:18:00,
2013-03-05 22:20:00,43.0,20.8,-100.00,North,355,4.0,9.0,41,0.00,,,0.00,meteohub,2013-03-06 04:20:00,
2013-03-05 22:22:00,43.0,20.8,-100.00,North,355,4.0,9.0,41,0.00,,,0.00,meteohub,2013-03-06 04:22:00,
2013-03-05 22:23:00,43.0,20.8,-100.00,North,355,2.0,9.0,41,0.00,,,0.00,meteohub,2013-03-06 04:23:00,
2013-03-05 22:26:00,42.8,20.7,-100.00,North,355,2.0,6.0,41,0.00,,,0.00,meteohub,2013-03-06 04:26:00,
2013-03-05 22:27:00,42.8,20.7,-100.00,North,355,2.0,6.0,41,0.00,,,0.00,meteohub,2013-03-06 04:27:00,
2013-03-05 22:29:00,42.8,21.4,-100.00,North,355,3.0,6.0,42,0.00,,,0.00,meteohub,2013-03-06 04:29:00,
2013-03-05 22:31:00,42.6,21.2,-100.00,North,355,2.0,5.0,42,0.00,,,0.00,meteohub,2013-03-06 04:31:00,
2013-03-05 22:32:00,42.6,21.2,-100.00,North,355,0.0,5.0,42,0.00,,,0.00,meteohub,2013-03-06 04:32:00,
2013-03-05 22:33:00,42.6,21.2,-100.00,North,355,1.0,5.0,42,0.00,,,0.00,meteohub,2013-03-06 04:33:00,
2013-03-05 22:34:00,42.4,21.0,-100.00,North,355,1.0,5.0,42,0.00,,,0.00,meteohub,2013-03-06 04:34:00,
2013-03-05 22:36:00,42.4,21.0,-100.00,North,355,2.0,4.0,42,0.00,,,0.00,meteohub,2013-03-06 04:36:00,
2013-03-05 22:37:00,42.4,21.0,-100.00,North,355,3.0,4.0,42,0.00,,,0.00,meteohub,2013-03-06 04:37:00,
2013-03-05 22:38:00,42.3,20.8,-100.00,North,355,2.0,4.0,42,0.00,,,0.00,meteohub,2013-03-06 04:38:00,
2013-03-05 22:39:00,42.3,20.8,-100.00,North,355,1.0,4.0,42,0.00,,,0.00,meteohub,2013-03-06 04:39:00,
2013-03-05 22:42:00,42.3,20.8,-100.00,North,355,2.0,3.0,42,0.00,,,0.00,meteohub,2013-03-06 04:42:00,
2013-03-05 22:44:00,42.3,20.8,-100.00,North,355,1.0,3.0,42,0.00,,,0.00,meteohub,2013-03-06 04:44:00,
2013-03-05 22:47:00,42.3,20.3,-100.00,North,355,1.0,4.0,41,0.00,,,0.00,meteohub,2013-03-06 04:47:00,
2013-03-05 22:49:00,42.3,20.3,-100.00,North,355,0.0,4.0,41,0.00,,,0.00,meteohub,2013-03-06 04:49:00,
2013-03-05 22:52:00,42.3,20.8,-100.00,North,355,1.0,4.0,42,0.00,,,0.00,meteohub,2013-03-06 04:52:00,
2013-03-05 22:53:00,42.3,20.8,-100.00,North,355,3.0,4.0,42,0.00,,,0.00,meteohub,2013-03-06 04:53:00,
2013-03-05 22:54:00,42.3,20.8,-100.00,North,355,2.0,4.0,42,0.00,,,0.00,meteohub,2013-03-06 04:54:00,
2013-03-05 22:55:00,42.3,20.3,-100.00,North,355,2.0,4.0,41,0.00,,,0.00,meteohub,2013-03-06 04:55:00,
2013-03-05 22:58:00,42.3,20.3,-100.00,North,355,2.0,3.0,41,0.00,,,0.00,meteohub,2013-03-06 04:58:00,
2013-03-05 22:59:00,42.1,20.1,-100.00,North,355,3.0,3.0,41,0.00,,,0.00,meteohub,2013-03-06 04:59:00,
2013-03-05 23:00:00,42.1,20.7,-100.00,North,355,2.0,3.0,42,0.00,,,0.00,meteohub,2013-03-06 05:00:00,
2013-03-05 23:05:00,41.9,19.9,-100.00,North,355,3.0,3.0,41,0.00,,,0.00,meteohub,2013-03-06 05:05:00,
2013-03-05 23:10:00,41.9,19.9,-100.00,North,355,2.0,5.0,41,0.00,,,0.00,meteohub,2013-03-06 05:10:00,
2013-03-05 23:11:00,41.9,19.9,-100.00,North,355,3.0,5.0,41,0.00,,,0.00,meteohub,2013-03-06 05:11:00,
2013-03-05 23:15:00,41.7,19.8,-100.00,North,355,3.0,4.0,41,0.00,,,0.00,meteohub,2013-03-06 05:15:00,
2013-03-05 23:16:00,41.7,19.8,-100.00,North,355,3.0,4.0,41,0.00,,,0.00,meteohub,2013-03-06 05:16:00,
2013-03-05 23:20:00,41.5,20.1,-100.00,North,355,4.0,5.0,42,0.00,,,0.00,meteohub,2013-03-06 05:20:00,
2013-03-05 23:21:00,41.5,20.7,-100.00,North,355,4.0,5.0,43,0.00,,,0.00,meteohub,2013-03-06 05:21:00,
2013-03-05 23:22:00,41.4,20.5,-100.00,North,355,3.0,5.0,43,0.00,,,0.00,meteohub,2013-03-06 05:22:00,
2013-03-05 23:26:00,41.2,20.3,-100.00,North,355,4.0,6.0,43,0.00,,,0.00,meteohub,2013-03-06 05:26:00,
2013-03-05 23:27:00,41.2,20.8,-100.00,North,355,4.0,6.0,44,0.00,,,0.00,meteohub,2013-03-06 05:27:00,
2013-03-05 23:31:00,41.2,20.8,-100.00,North,355,3.0,6.0,44,0.00,,,0.00,meteohub,2013-03-06 05:31:00,
2013-03-05 23:32:00,41.2,20.8,-100.00,North,355,3.0,6.0,44,0.00,,,0.00,meteohub,2013-03-06 05:32:00,
2013-03-05 23:36:00,40.8,21.2,-100.00,North,355,3.0,6.0,45,0.00,,,0.00,meteohub,2013-03-06 05:36:00,
2013-03-05 23:37:00,40.8,21.2,-100.00,North,355,4.0,6.0,45,0.00,,,0.00,meteohub,2013-03-06 05:37:00,
2013-03-05 23:41:00,40.8,21.2,-100.00,North,355,5.0,6.0,45,0.00,,,0.00,meteohub,2013-03-06 05:41:00,
2013-03-05 23:42:00,40.8,21.2,-100.00,North,355,5.0,6.0,45,0.00,,,0.00,meteohub,2013-03-06 05:42:00,
2013-03-05 23:46:00,40.8,21.2,-100.00,North,355,3.0,6.0,45,0.00,,,0.00,meteohub,2013-03-06 05:46:00,
2013-03-05 23:47:00,40.8,21.2,-100.00,North,355,2.0,6.0,45,0.00,,,0.00,meteohub,2013-03-06 05:47:00,
2013-03-05 23:48:00,40.8,21.2,-100.00,North,355,4.0,6.0,45,0.00,,,0.00,meteohub,2013-03-06 05:48:00,
2013-03-05 23:51:00,40.8,21.2,-100.00,North,355,4.0,6.0,45,0.00,,,0.00,meteohub,2013-03-06 05:51:00,
2013-03-05 23:52:00,40.8,21.2,-100.00,North,355,4.0,6.0,45,0.00,,,0.00,meteohub,2013-03-06 05:52:00,
2013-03-05 23:53:00,40.8,21.6,-100.00,North,355,3.0,6.0,46,0.00,,,0.00,meteohub,2013-03-06 05:53:00,
2013-03-05 23:54:00,40.6,21.6,-100.00,North,355,5.0,6.0,46,0.00,,,0.00,meteohub,2013-03-06 05:54:00,
2013-03-05 23:57:00,40.6,21.6,-100.00,North,355,4.0,6.0,46,0.00,,,0.00,meteohub,2013-03-06 05:57:00,
2013-03-05 23:58:00,40.6,21.6,-100.00,North,355,5.0,6.0,46,0.00,,,0.00,meteohub,2013-03-06 05:58:00,
2013-03-05 23:59:00,40.5,21.4,-100.00,North,355,4.0,6.0,46,0.00,,,0.00,meteohub,2013-03-06 05:59:00,